Time,TemperatureF,DewpointF,PressureIn,WindDirection,WindDirectionDegrees,WindSpeedMPH,WindSpeedGustMPH,Humidity,HourlyPrecipIn,Conditions,Clouds,dailyrainin,SolarRadiationWatts/m^2,SoftwareType,DateUTC
2013-04-07 00:00:00,57.8,44.9,29.69,SE,140,3.0,4.0,62,0.00,,,0.00,0.00,VWS V14.01,2013-04-07 04:00:00,
2013-04-07 00:01:00,57.8,44.9,29.69,SSE,158,3.0,6.0,62,0.00,,,0.00,0.00,VWS V14.01,2013-04-07 04:01:00,
2013-04-07 00:02:00,57.7,45.2,29.69,SSE,155,4.0,5.0,63,0.00,,,0.00,0.00,VWS V14.01,2013-04-07 04:02:00,
2013-04-07 00:03:00,57.7,45.2,29.69,SSE,154,4.0,5.0,63,0.00,,,0.00,0.00,VWS V14.01,2013-04-07 04:03:00,
2013-04-07 00:04:00,57.5,45.0,29.69,SSE,157,2.0,4.0,63,0.00,,,0.00,0.00,VWS V14.01,2013-04-07 04:04:00,
2013-04-07 00:05:00,57.3,44.4,29.69,SE,134,3.0,5.0,62,0.00,,,0.00,0.00,VWS V14.01,2013-04-07 04:05:00,
2013-04-07 00:06:00,57.3,44.4,29.69,SE,144,5.0,5.0,62,0.00,,,0.00,0.00,VWS V14.01,2013-04-07 04:06:00,
2013-04-07 00:07:00,57.3,44.8,29.69,SSE,154,4.0,5.0,63,0.00,,,0.00,0.00,VWS V14.01,2013-04-07 04:07:00,
2013-04-07 00:08:00,57.2,44.7,29.68,SSE,157,2.0,4.0,63,0.00,,,0.00,0.00,VWS V14.01,2013-04-07 04:08:00,
2013-04-07 00:09:00,57.2,44.7,29.68,SSE,159,3.0,4.0,63,0.00,,,0.00,0.00,VWS V14.01,2013-04-07 04:09:00,
2013-04-07 00:10:00,57.2,44.3,29.68,SSE,152,2.0,3.0,62,0.00,,,0.00,0.00,VWS V14.01,2013-04-07 04:10:00,
2013-04-07 00:11:00,57.2,44.3,29.69,SSE,152,3.0,4.0,62,0.00,,,0.00,0.00,VWS V14.01,2013-04-07 04:11:00,
2013-04-07 00:12:00,57.1,44.6,29.68,SSE,152,2.0,3.0,63,0.00,,,0.00,0.00,VWS V14.01,2013-04-07 04:12:00,
2013-04-07 00:13:00,57.1,44.6,29.68,SE,132,1.0,4.0,63,0.00,,,0.00,0.00,VWS V14.01,2013-04-07 04:13:00,
2013-04-07 00:14:00,57.0,45.0,29.68,SE,142,4.0,4.0,64,0.00,,,0.00,0.00,VWS V14.01,2013-04-07 04:14:00,
2013-04-07 00:15:00,56.8,44.8,29.68,SE,134,2.0,2.0,64,0.00,,,0.00,0.00,VWS V14.01,2013-04-07 04:15:00,
2013-04-07 00:16:00,56.9,44.9,29.69,SE,134,2.0,4.0,64,0.00,,,0.00,0.00,VWS V14.01,2013-04-07 04:16:00,
2013-04-07 00:17:00,56.8,44.8,29.68,SSE,150,3.0,4.0,64,0.00,,,0.00,0.00,VWS V14.01,2013-04-07 04:17:00,
2013-04-07 00:18:00,56.7,44.7,29.68,SSE,151,3.0,4.0,64,0.00,,,0.00,0.00,VWS V14.01,2013-04-07 04:18:00,
2013-04-07 00:19:00,56.6,45.0,29.68,SE,146,2.0,4.0,65,0.00,,,0.00,0.00,VWS V14.01,2013-04-07 04:19:00,
2013-04-07 00:20:00,56.4,45.2,29.67,SE,142,3.0,3.0,66,0.01,,,0.01,0.00,VWS V14.01,2013-04-07 04:20:00,
2013-04-07 00:21:00,56.4,45.2,29.67,SE,135,2.0,5.0,66,0.01,,,0.01,0.00,VWS V14.01,2013-04-07 04:21:00,
2013-04-07 00:22:00,56.4,45.2,29.67,ESE,104,3.0,5.0,66,0.01,,,0.01,0.00,VWS V14.01,2013-04-07 04:22:00,
2013-04-07 00:23:00,56.3,45.1,29.67,SE,130,3.0,7.0,66,0.01,,,0.01,0.00,VWS V14.01,2013-04-07 04:23:00,
2013-04-07 00:24:00,56.3,45.1,29.67,SE,131,2.0,3.0,66,0.01,,,0.01,0.00,VWS V14.01,2013-04-07 04:24:00,
2013-04-07 00:25:00,56.3,45.1,29.67,SE,132,1.0,2.0,66,0.01,,,0.01,0.00,VWS V14.01,2013-04-07 04:25:00,
2013-04-07 00:26:00,56.3,45.1,29.67,SE,132,2.0,3.0,66,0.01,,,0.01,0.00,VWS V14.01,2013-04-07 04:26:00,
2013-04-07 00:27:00,56.2,45.0,29.67,SSE,147,3.0,3.0,66,0.01,,,0.01,0.00,VWS V14.01,2013-04-07 04:27:00,
2013-04-07 00:28:00,56.2,45.0,29.67,SSE,148,2.0,4.0,66,0.01,,,0.01,0.00,VWS V14.01,2013-04-07 04:28:00,
2013-04-07 00:29:00,56.2,45.0,29.67,SSE,148,2.0,3.0,66,0.01,,,0.01,0.00,VWS V14.01,2013-04-07 04:29:00,
2013-04-07 00:30:00,56.3,45.1,29.66,SE,134,4.0,4.0,66,0.01,,,0.01,0.00,VWS V14.01,2013-04-07 04:30:00,
2013-04-07 00:31:00,56.3,45.1,29.66,SSE,157,4.0,5.0,66,0.01,,,0.01,0.00,VWS V14.01,2013-04-07 04:31:00,
2013-04-07 00:32:00,56.4,45.2,29.66,SSE,155,2.0,5.0,66,0.01,,,0.01,0.00,VWS V14.01,2013-04-07 04:32:00,
2013-04-07 00:33:00,56.5,45.3,29.66,SSE,155,3.0,3.0,66,0.01,,,0.01,0.00,VWS V14.01,2013-04-07 04:33:00,
2013-04-07 00:34:00,56.7,45.1,29.66,SSE,151,4.0,5.0,65,0.01,,,0.01,0.00,VWS V14.01,2013-04-07 04:34:00,
2013-04-07 00:35:00,57.1,45.0,29.66,SSE,168,5.0,5.0,64,0.01,,,0.01,0.00,VWS V14.01,2013-04-07 04:35:00,
2013-04-07 00:36:00,57.0,45.0,29.66,SSE,153,5.0,5.0,64,0.01,,,0.01,0.00,VWS V14.01,2013-04-07 04:36:00,
2013-04-07 00:37:00,57.2,45.2,29.66,SE,146,1.0,5.0,64,0.01,,,0.01,0.00,VWS V14.01,2013-04-07 04:37:00,
2013-04-07 00:38:00,57.2,45.2,29.66,SSE,148,3.0,4.0,64,0.01,,,0.01,0.00,VWS V14.01,2013-04-07 04:38:00,
2013-04-07 00:39:00,57.3,45.2,29.66,SE,136,2.0,4.0,64,0.01,,,0.01,0.00,VWS V14.01,2013-04-07 04:39:00,
2013-04-07 00:40:00,57.5,44.6,29.65,SSE,153,3.0,3.0,62,0.01,,,0.01,0.00,VWS V14.01,2013-04-07 04:40:00,
2013-04-07 00:41:00,57.5,44.6,29.66,SSE,152,2.0,6.0,62,0.01,,,0.01,0.00,VWS V14.01,2013-04-07 04:41:00,
2013-04-07 00:42:00,57.7,45.2,29.65,SSE,155,2.0,4.0,63,0.01,,,0.01,0.00,VWS V14.01,2013-04-07 04:42:00,
2013-04-07 00:43:00,57.7,44.8,29.65,SSE,153,3.0,5.0,62,0.01,,,0.01,0.00,VWS V14.01,2013-04-07 04:43:00,
2013-04-07 00:44:00,57.8,44.9,29.65,SE,137,6.0,6.0,62,0.01,,,0.01,0.00,VWS V14.01,2013-04-07 04:44:00,
2013-04-07 00:45:00,58.0,44.6,29.65,SSE,148,2.0,2.0,61,0.01,,,0.01,0.00,VWS V14.01,2013-04-07 04:45:00,
2013-04-07 00:46:00,58.0,44.6,29.65,SSE,148,2.0,4.0,61,0.01,,,0.01,0.00,VWS V14.01,2013-04-07 04:46:00,
2013-04-07 00:47:00,58.0,45.1,29.65,SSE,148,1.0,3.0,62,0.01,,,0.01,0.00,VWS V14.01,2013-04-07 04:47:00,
2013-04-07 00:48:00,58.0,45.1,29.65,SSE,149,2.0,5.0,62,0.01,,,0.01,0.00,VWS V14.01,2013-04-07 04:48:00,
2013-04-07 00:49:00,58.0,45.1,29.65,SSE,149,3.0,3.0,62,0.01,,,0.01,0.00,VWS V14.01,2013-04-07 04:49:00,
2013-04-07 00:50:00,58.1,44.7,29.65,SE,145,2.0,4.0,61,0.01,,,0.01,0.00,VWS V14.01,2013-04-07 04:50:00,
2013-04-07 00:51:00,58.1,44.7,29.65,SSE,148,4.0,5.0,61,0.01,,,0.01,0.00,VWS V14.01,2013-04-07 04:51:00,
2013-04-07 00:52:00,58.2,44.8,29.65,SE,143,3.0,4.0,61,0.01,,,0.01,0.00,VWS V14.01,2013-04-07 04:52:00,
2013-04-07 00:53:00,58.2,44.8,29.65,SE,142,3.0,5.0,61,0.01,,,0.01,0.00,VWS V14.01,2013-04-07 04:53:00,
2013-04-07 00:54:00,58.3,44.9,29.65,SE,146,2.0,4.0,61,0.01,,,0.01,0.00,VWS V14.01,2013-04-07 04:54:00,
2013-04-07 00:55:00,58.3,45.3,29.65,SE,146,2.0,2.0,62,0.01,,,0.01,0.00,VWS V14.01,2013-04-07 04:55:00,
2013-04-07 00:56:00,58.2,45.3,29.65,SE,146,2.0,3.0,62,0.01,,,0.01,0.00,VWS V14.01,2013-04-07 04:56:00,
2013-04-07 00:57:00,58.2,45.3,29.65,SSE,148,3.0,3.0,62,0.01,,,0.01,0.00,VWS V14.01,2013-04-07 04:57:00,
2013-04-07 00:58:00,58.2,45.3,29.65,SSE,148,2.0,5.0,62,0.01,,,0.01,0.00,VWS V14.01,2013-04-07 04:58:00,
2013-04-07 00:59:00,58.1,45.2,29.65,SSE,158,2.0,6.0,62,0.01,,,0.01,0.00,VWS V14.01,2013-04-07 04:59:00,
2013-04-07 01:00:00,58.2,44.8,29.64,SE,139,0.0,2.0,61,0.01,,,0.01,0.00,VWS V14.01,2013-04-07 05:00:00,
2013-04-07 01:01:00,58.2,44.8,29.65,SE,139,1.0,4.0,61,0.01,,,0.01,0.00,VWS V14.01,2013-04-07 05:01:00,
2013-04-07 01:02:00,58.3,44.9,29.64,SE,146,2.0,4.0,61,0.01,,,0.01,0.00,VWS V14.01,2013-04-07 05:02:00,
2013-04-07 01:03:00,58.2,44.8,29.64,SSE,148,2.0,4.0,61,0.01,,,0.01,0.00,VWS V14.01,2013-04-07 05:03:00,
2013-04-07 01:04:00,58.3,44.9,29.64,SSE,155,2.0,4.0,61,0.01,,,0.01,0.00,VWS V14.01,2013-04-07 05:04:00,
2013-04-07 01:05:00,58.2,44.8,29.64,SSE,149,3.0,4.0,61,0.01,,,0.01,0.00,VWS V14.01,2013-04-07 05:05:00,
2013-04-07 01:06:00,58.2,44.8,29.64,SSE,149,4.0,4.0,61,0.01,,,0.01,0.00,VWS V14.01,2013-04-07 05:06:00,
2013-04-07 01:07:00,58.3,44.9,29.64,SSE,149,1.0,4.0,61,0.01,,,0.01,0.00,VWS V14.01,2013-04-07 05:07:00,
2013-04-07 01:08:00,58.2,45.3,29.64,SSE,149,2.0,2.0,62,0.01,,,0.01,0.00,VWS V14.01,2013-04-07 05:08:00,
2013-04-07 01:09:00,58.2,44.8,29.64,SSE,149,2.0,3.0,61,0.01,,,0.01,0.00,VWS V14.01,2013-04-07 05:09:00,
2013-04-07 01:10:00,58.2,44.8,29.64,SSE,165,3.0,4.0,61,0.01,,,0.01,0.00,VWS V14.01,2013-04-07 05:10:00,
2013-04-07 01:11:00,58.2,44.8,29.64,SSE,152,2.0,4.0,61,0.01,,,0.01,0.00,VWS V14.01,2013-04-07 05:11:00,
2013-04-07 01:12:00,58.2,44.8,29.64,SE,130,4.0,7.0,61,0.01,,,0.01,0.00,VWS V14.01,2013-04-07 05:12:00,
2013-04-07 01:13:00,58.3,44.9,29.64,SE,139,3.0,8.0,61,0.01,,,0.01,0.00,VWS V14.01,2013-04-07 05:13:00,
2013-04-07 01:14:00,58.3,44.9,29.64,SSE,148,2.0,3.0,61,0.01,,,0.01,0.00,VWS V14.01,2013-04-07 05:14:00,
2013-04-07 01:15:00,58.3,44.9,29.64,SSE,149,2.0,3.0,61,0.01,,,0.01,0.00,VWS V14.01,2013-04-07 05:15:00,
2013-04-07 01:16:00,58.3,44.9,29.64,SSE,149,2.0,5.0,61,0.01,,,0.01,0.00,VWS V14.01,2013-04-07 05:16:00,
2013-04-07 01:17:00,58.4,44.6,29.64,SSE,149,1.0,3.0,60,0.01,,,0.01,0.00,VWS V14.01,2013-04-07 05:17:00,
2013-04-07 01:18:00,58.4,45.0,29.64,SSE,149,2.0,3.0,61,0.01,,,0.01,0.00,VWS V14.01,2013-04-07 05:18:00,
2013-04-07 01:19:00,58.3,44.9,29.64,SSE,149,2.0,3.0,61,0.01,,,0.01,0.00,VWS V14.01,2013-04-07 05:19:00,
2013-04-07 01:20:00,58.3,44.9,29.64,South,171,3.0,3.0,61,0.00,,,0.01,0.00,VWS V14.01,2013-04-07 05:20:00,
2013-04-07 01:21:00,58.3,44.9,29.64,South,188,3.0,5.0,61,0.01,,,0.01,0.00,VWS V14.01,2013-04-07 05:21:00,
2013-04-07 01:22:00,58.3,44.9,29.64,SE,136,3.0,3.0,61,0.00,,,0.01,0.00,VWS V14.01,2013-04-07 05:22:00,
2013-04-07 01:23:00,58.3,44.9,29.64,SE,140,2.0,3.0,61,0.00,,,0.01,0.00,VWS V14.01,2013-04-07 05:23:00,
2013-04-07 01:24:00,58.2,44.8,29.64,SE,146,4.0,4.0,61,0.00,,,0.01,0.00,VWS V14.01,2013-04-07 05:24:00,
2013-04-07 01:25:00,58.3,44.9,29.64,SE,139,2.0,3.0,61,0.00,,,0.01,0.00,VWS V14.01,2013-04-07 05:25:00,
2013-04-07 01:26:00,58.3,44.9,29.64,SE,139,3.0,3.0,61,0.00,,,0.01,0.00,VWS V14.01,2013-04-07 05:26:00,
2013-04-07 01:27:00,58.3,44.9,29.64,SSE,155,3.0,4.0,61,0.00,,,0.01,0.00,VWS V14.01,2013-04-07 05:27:00,
2013-04-07 01:28:00,58.3,44.9,29.64,SSE,155,2.0,4.0,61,0.00,,,0.01,0.00,VWS V14.01,2013-04-07 05:28:00,
2013-04-07 01:29:00,58.3,44.9,29.64,SSE,152,3.0,3.0,61,0.00,,,0.01,0.00,VWS V14.01,2013-04-07 05:29:00,
2013-04-07 01:30:00,58.3,44.9,29.64,SE,140,3.0,3.0,61,0.00,,,0.01,0.00,VWS V14.01,2013-04-07 05:30:00,
2013-04-07 01:31:00,58.3,44.9,29.64,SE,136,2.0,4.0,61,0.00,,,0.01,0.00,VWS V14.01,2013-04-07 05:31:00,
2013-04-07 01:32:00,58.3,44.9,29.64,SSE,150,2.0,4.0,61,0.00,,,0.01,0.00,VWS V14.01,2013-04-07 05:32:00,
2013-04-07 01:33:00,58.3,44.9,29.64,SE,136,2.0,3.0,61,0.00,,,0.01,0.00,VWS V14.01,2013-04-07 05:33:00,
2013-04-07 01:34:00,58.3,44.9,29.64,SE,144,2.0,4.0,61,0.00,,,0.01,0.00,VWS V14.01,2013-04-07 05:34:00,
2013-04-07 01:35:00,58.3,44.9,29.64,SSE,148,2.0,2.0,61,0.00,,,0.01,0.00,VWS V14.01,2013-04-07 05:35:00,
2013-04-07 01:36:00,58.3,44.9,29.64,SSE,148,2.0,5.0,61,0.00,,,0.01,0.00,VWS V14.01,2013-04-07 05:36:00,
2013-04-07 01:37:00,58.4,45.0,29.64,SSE,150,3.0,4.0,61,0.00,,,0.01,0.00,VWS V14.01,2013-04-07 05:37:00,
2013-04-07 01:38:00,58.5,44.7,29.64,SSE,157,4.0,6.0,60,0.00,,,0.01,0.00,VWS V14.01,2013-04-07 05:38:00,
2013-04-07 01:39:00,58.6,44.8,29.64,SSE,156,3.0,4.0,60,0.00,,,0.01,0.00,VWS V14.01,2013-04-07 05:39:00,
2013-04-07 01:40:00,58.7,44.9,29.64,SE,128,3.0,3.0,60,0.00,,,0.01,0.00,VWS V14.01,2013-04-07 05:40:00,
2013-04-07 01:41:00,58.6,44.8,29.64,SSE,154,2.0,5.0,60,0.00,,,0.01,0.00,VWS V14.01,2013-04-07 05:41:00,
2013-04-07 01:42:00,58.6,44.8,29.64,SSE,151,4.0,5.0,60,0.00,,,0.01,0.00,VWS V14.01,2013-04-07 05:42:00,
2013-04-07 01:43:00,58.7,44.9,29.64,SSE,154,3.0,4.0,60,0.00,,,0.01,0.00,VWS V14.01,2013-04-07 05:43:00,
2013-04-07 01:44:00,58.6,44.8,29.64,SSE,148,4.0,5.0,60,0.00,,,0.01,0.00,VWS V14.01,2013-04-07 05:44:00,
2013-04-07 01:45:00,58.7,44.9,29.64,ESE,123,4.0,4.0,60,0.00,,,0.01,0.00,VWS V14.01,2013-04-07 05:45:00,
2013-04-07 01:46:00,58.7,44.9,29.64,SSE,167,2.0,4.0,60,0.00,,,0.01,0.00,VWS V14.01,2013-04-07 05:46:00,
2013-04-07 01:47:00,58.7,44.9,29.64,SSE,155,5.0,5.0,60,0.00,,,0.01,0.00,VWS V14.01,2013-04-07 05:47:00,
2013-04-07 01:48:00,58.8,45.0,29.64,SSE,153,4.0,6.0,60,0.00,,,0.01,0.00,VWS V14.01,2013-04-07 05:48:00,
2013-04-07 01:49:00,58.9,44.6,29.64,SSE,157,4.0,6.0,59,0.00,,,0.01,0.00,VWS V14.01,2013-04-07 05:49:00,
2013-04-07 01:50:00,59.0,44.7,29.65,SSE,159,4.0,7.0,59,0.00,,,0.01,0.00,VWS V14.01,2013-04-07 05:50:00,
2013-04-07 01:51:00,59.0,44.7,29.65,South,169,7.0,7.0,59,0.00,,,0.01,0.00,VWS V14.01,2013-04-07 05:51:00,
2013-04-07 01:52:00,59.1,44.3,29.65,South,170,3.0,7.0,58,0.00,,,0.01,0.00,VWS V14.01,2013-04-07 05:52:00,
2013-04-07 01:53:00,59.3,44.5,29.65,SSE,155,2.0,7.0,58,0.00,,,0.01,0.00,VWS V14.01,2013-04-07 05:53:00,
2013-04-07 01:54:00,59.4,44.2,29.65,SSW,195,9.0,13.0,57,0.00,,,0.01,0.00,VWS V14.01,2013-04-07 05:54:00,
2013-04-07 01:55:00,59.9,44.2,29.66,SSE,159,4.0,6.0,56,0.00,,,0.01,0.00,VWS V14.01,2013-04-07 05:55:00,
2013-04-07 01:56:00,59.8,44.1,29.65,SSW,200,5.0,27.0,56,0.00,,,0.01,0.00,VWS V14.01,2013-04-07 05:56:00,
2013-04-07 01:57:00,60.0,44.7,29.66,South,182,20.0,20.0,57,0.00,,,0.01,0.00,VWS V14.01,2013-04-07 05:57:00,
2013-04-07 01:58:00,60.1,44.4,29.66,SSE,157,14.0,20.0,56,0.00,,,0.01,0.00,VWS V14.01,2013-04-07 05:58:00,
2013-04-07 01:59:00,60.2,44.9,29.66,SSW,209,6.0,14.0,57,0.00,,,0.01,0.00,VWS V14.01,2013-04-07 05:59:00,
2013-04-07 02:00:00,60.4,45.6,29.66,SE,132,3.0,6.0,58,0.00,,,0.01,0.00,VWS V14.01,2013-04-07 06:00:00,
2013-04-07 02:01:00,60.4,45.6,29.66,South,189,6.0,27.0,58,0.00,,,0.01,0.00,VWS V14.01,2013-04-07 06:01:00,
2013-04-07 02:02:00,60.4,45.6,29.66,WSW,257,15.0,15.0,58,0.00,,,0.01,0.00,VWS V14.01,2013-04-07 06:02:00,
2013-04-07 02:03:00,60.3,45.5,29.66,South,181,7.0,21.0,58,0.00,,,0.01,0.00,VWS V14.01,2013-04-07 06:03:00,
2013-04-07 02:04:00,60.3,45.5,29.67,West,261,13.0,22.0,58,0.00,,,0.01,0.00,VWS V14.01,2013-04-07 06:04:00,
2013-04-07 02:05:00,60.1,45.7,29.67,SSE,155,4.0,7.0,59,0.00,,,0.01,0.00,VWS V14.01,2013-04-07 06:05:00,
2013-04-07 02:06:00,60.1,45.7,29.66,SSE,153,7.0,13.0,59,0.00,,,0.01,0.00,VWS V14.01,2013-04-07 06:06:00,
2013-04-07 02:07:00,60.0,46.1,29.67,South,188,8.0,14.0,60,0.00,,,0.01,0.00,VWS V14.01,2013-04-07 06:07:00,
2013-04-07 02:08:00,59.9,46.0,29.67,SSW,202,5.0,8.0,60,0.00,,,0.01,0.00,VWS V14.01,2013-04-07 06:08:00,
2013-04-07 02:09:00,59.8,45.9,29.67,SSW,199,4.0,13.0,60,0.00,,,0.01,0.00,VWS V14.01,2013-04-07 06:09:00,
2013-04-07 02:10:00,59.5,46.5,29.67,SSW,207,20.0,25.0,62,0.00,,,0.01,0.00,VWS V14.01,2013-04-07 06:10:00,
2013-04-07 02:11:00,59.5,46.5,29.67,SSW,198,14.0,18.0,62,0.00,,,0.01,0.00,VWS V14.01,2013-04-07 06:11:00,
2013-04-07 02:12:00,59.3,46.7,29.67,South,169,10.0,25.0,63,0.00,,,0.01,0.00,VWS V14.01,2013-04-07 06:12:00,
2013-04-07 02:13:00,59.1,47.0,29.67,South,186,6.0,23.0,64,0.00,,,0.01,0.00,VWS V14.01,2013-04-07 06:13:00,
2013-04-07 02:14:00,58.8,47.5,29.67,SW,226,13.0,21.0,66,0.00,,,0.01,0.00,VWS V14.01,2013-04-07 06:14:00,
2013-04-07 02:15:00,58.2,47.7,29.67,South,188,6.0,8.0,68,0.00,,,0.01,0.00,VWS V14.01,2013-04-07 06:15:00,
2013-04-07 02:16:00,58.2,47.3,29.67,SW,219,8.0,24.0,67,0.00,,,0.01,0.00,VWS V14.01,2013-04-07 06:16:00,
2013-04-07 02:17:00,58.0,47.5,29.67,SE,136,3.0,24.0,68,0.00,,,0.01,0.00,VWS V14.01,2013-04-07 06:17:00,
2013-04-07 02:18:00,57.7,47.6,29.67,SW,215,4.0,7.0,69,0.00,,,0.01,0.00,VWS V14.01,2013-04-07 06:18:00,
2013-04-07 02:19:00,57.4,47.7,29.66,SSE,163,6.0,18.0,70,0.00,,,0.01,0.00,VWS V14.01,2013-04-07 06:19:00,
2013-04-07 02:20:00,56.9,48.0,29.66,SSE,160,4.0,5.0,72,0.00,,,0.01,0.00,VWS V14.01,2013-04-07 06:20:00,
2013-04-07 02:21:00,56.9,48.0,29.66,SSE,161,4.0,10.0,72,0.00,,,0.01,0.00,VWS V14.01,2013-04-07 06:21:00,
2013-04-07 02:22:00,56.8,47.9,29.66,SSE,164,4.0,15.0,72,0.00,,,0.01,0.00,VWS V14.01,2013-04-07 06:22:00,
2013-04-07 02:23:00,56.6,47.7,29.65,South,174,5.0,8.0,72,0.00,,,0.01,0.00,VWS V14.01,2013-04-07 06:23:00,
2013-04-07 02:24:00,56.6,47.7,29.66,SSE,155,3.0,7.0,72,0.00,,,0.01,0.00,VWS V14.01,2013-04-07 06:24:00,
2013-04-07 02:25:00,56.3,47.8,29.66,South,185,10.0,10.0,73,0.00,,,0.01,0.00,VWS V14.01,2013-04-07 06:25:00,
2013-04-07 02:26:00,56.3,47.8,29.65,SE,135,6.0,8.0,73,0.00,,,0.01,0.00,VWS V14.01,2013-04-07 06:26:00,
2013-04-07 02:27:00,56.3,47.8,29.66,SSW,207,10.0,22.0,73,0.00,,,0.01,0.00,VWS V14.01,2013-04-07 06:27:00,
2013-04-07 02:28:00,56.3,47.8,29.65,SSE,165,7.0,10.0,73,0.00,,,0.01,0.00,VWS V14.01,2013-04-07 06:28:00,
2013-04-07 02:29:00,56.3,47.8,29.65,SSE,159,5.0,11.0,73,0.00,,,0.01,0.00,VWS V14.01,2013-04-07 06:29:00,
2013-04-07 02:30:00,56.3,48.1,29.65,South,184,6.0,6.0,74,0.00,,,0.01,0.00,VWS V14.01,2013-04-07 06:30:00,
2013-04-07 02:31:00,56.3,48.1,29.64,South,184,5.0,9.0,74,0.00,,,0.01,0.00,VWS V14.01,2013-04-07 06:31:00,
2013-04-07 02:32:00,56.2,48.0,29.65,SSE,157,4.0,11.0,74,0.00,,,0.01,0.00,VWS V14.01,2013-04-07 06:32:00,
2013-04-07 02:33:00,56.2,48.0,29.65,SSE,155,3.0,13.0,74,0.00,,,0.01,0.00,VWS V14.01,2013-04-07 06:33:00,
2013-04-07 02:34:00,56.1,47.9,29.65,South,182,3.0,4.0,74,0.00,,,0.01,0.00,VWS V14.01,2013-04-07 06:34:00,
2013-04-07 02:35:00,55.9,48.1,29.65,South,188,11.0,11.0,75,0.00,,,0.01,0.00,VWS V14.01,2013-04-07 06:35:00,
2013-04-07 02:36:00,55.9,48.1,29.65,South,186,9.0,9.0,75,0.00,,,0.01,0.00,VWS V14.01,2013-04-07 06:36:00,
2013-04-07 02:37:00,55.8,48.0,29.65,SSW,200,6.0,21.0,75,0.00,,,0.01,0.00,VWS V14.01,2013-04-07 06:37:00,
2013-04-07 02:38:00,55.8,48.0,29.66,South,171,5.0,9.0,75,0.00,,,0.01,0.00,VWS V14.01,2013-04-07 06:38:00,
2013-04-07 02:39:00,55.7,47.9,29.65,SSW,198,7.0,11.0,75,0.00,,,0.01,0.00,VWS V14.01,2013-04-07 06:39:00,
2013-04-07 02:40:00,55.6,47.8,29.66,SSE,164,5.0,5.0,75,0.00,,,0.01,0.00,VWS V14.01,2013-04-07 06:40:00,
2013-04-07 02:41:00,55.6,47.8,29.65,SE,139,2.0,6.0,75,0.00,,,0.01,0.00,VWS V14.01,2013-04-07 06:41:00,
2013-04-07 02:42:00,55.6,48.2,29.66,SE,146,4.0,14.0,76,0.00,,,0.01,0.00,VWS V14.01,2013-04-07 06:42:00,
2013-04-07 02:43:00,55.5,48.1,29.65,SSE,161,4.0,4.0,76,0.00,,,0.01,0.00,VWS V14.01,2013-04-07 06:43:00,
2013-04-07 02:44:00,55.4,48.0,29.65,SE,136,5.0,7.0,76,0.00,,,0.01,0.00,VWS V14.01,2013-04-07 06:44:00,
2013-04-07 02:45:00,55.2,48.1,29.65,SSW,202,8.0,9.0,77,0.00,,,0.01,0.00,VWS V14.01,2013-04-07 06:45:00,
2013-04-07 02:46:00,55.2,48.1,29.65,SSW,200,9.0,12.0,77,0.00,,,0.01,0.00,VWS V14.01,2013-04-07 06:46:00,
2013-04-07 02:47:00,55.2,48.5,29.65,SSE,155,4.0,9.0,78,0.00,,,0.01,0.00,VWS V14.01,2013-04-07 06:47:00,
2013-04-07 02:48:00,55.1,48.4,29.65,SSE,161,4.0,15.0,78,0.00,,,0.01,0.00,VWS V14.01,2013-04-07 06:48:00,
2013-04-07 02:49:00,55.1,48.4,29.65,South,169,5.0,5.0,78,0.00,,,0.01,0.00,VWS V14.01,2013-04-07 06:49:00,
2013-04-07 02:50:00,55.0,48.6,29.65,SE,145,11.0,11.0,79,0.00,,,0.01,0.00,VWS V14.01,2013-04-07 06:50:00,
2013-04-07 02:51:00,55.0,48.6,29.65,South,180,4.0,13.0,79,0.00,,,0.01,0.00,VWS V14.01,2013-04-07 06:51:00,
2013-04-07 02:52:00,55.0,48.6,29.65,SSE,153,3.0,13.0,79,0.00,,,0.01,0.00,VWS V14.01,2013-04-07 06:52:00,
2013-04-07 02:53:00,55.0,48.6,29.65,South,169,5.0,7.0,79,0.00,,,0.01,0.00,VWS V14.01,2013-04-07 06:53:00,
2013-04-07 02:54:00,54.9,48.5,29.65,SSE,161,4.0,8.0,79,0.00,,,0.01,0.00,VWS V14.01,2013-04-07 06:54:00,
2013-04-07 02:55:00,54.9,48.9,29.64,South,186,2.0,2.0,80,0.00,,,0.01,0.00,VWS V14.01,2013-04-07 06:55:00,
2013-04-07 02:56:00,54.9,48.8,29.64,South,186,2.0,8.0,80,0.00,,,0.01,0.00,VWS V14.01,2013-04-07 06:56:00,
2013-04-07 02:57:00,54.9,48.8,29.64,South,170,5.0,5.0,80,0.00,,,0.01,0.00,VWS V14.01,2013-04-07 06:57:00,
2013-04-07 02:58:00,54.9,48.8,29.64,SE,128,5.0,11.0,80,0.00,,,0.01,0.00,VWS V14.01,2013-04-07 06:58:00,
2013-04-07 02:59:00,54.8,48.8,29.64,SSE,162,2.0,5.0,80,0.00,,,0.01,0.00,VWS V14.01,2013-04-07 06:59:00,
2013-04-07 03:00:00,54.8,48.8,29.64,SSE,164,1.0,1.0,80,0.00,,,0.01,0.00,VWS V14.01,2013-04-07 07:00:00,
2013-04-07 03:01:00,54.8,48.8,29.64,SSE,164,1.0,5.0,80,0.00,,,0.01,0.00,VWS V14.01,2013-04-07 07:01:00,
2013-04-07 03:02:00,54.8,48.8,29.63,SSE,156,2.0,4.0,80,0.00,,,0.01,0.00,VWS V14.01,2013-04-07 07:02:00,
2013-04-07 03:03:00,54.7,49.0,29.63,SSE,162,3.0,4.0,81,0.00,,,0.01,0.00,VWS V14.01,2013-04-07 07:03:00,
2013-04-07 03:04:00,54.7,49.0,29.63,SSE,161,3.0,4.0,81,0.00,,,0.01,0.00,VWS V14.01,2013-04-07 07:04:00,
2013-04-07 03:05:00,54.6,48.9,29.63,SSE,157,3.0,4.0,81,0.00,,,0.01,0.00,VWS V14.01,2013-04-07 07:05:00,
2013-04-07 03:06:00,54.6,48.9,29.63,SSE,157,3.0,4.0,81,0.00,,,0.01,0.00,VWS V14.01,2013-04-07 07:06:00,
2013-04-07 03:07:00,54.6,48.9,29.63,SSE,153,3.0,7.0,81,0.00,,,0.01,0.00,VWS V14.01,2013-04-07 07:07:00,
2013-04-07 03:08:00,54.6,48.9,29.63,South,173,2.0,4.0,81,0.00,,,0.01,0.00,VWS V14.01,2013-04-07 07:08:00,
2013-04-07 03:09:00,54.6,48.9,29.63,SSE,165,5.0,7.0,81,0.00,,,0.01,0.00,VWS V14.01,2013-04-07 07:09:00,
2013-04-07 03:10:00,54.6,48.9,29.63,SE,145,3.0,5.0,81,0.00,,,0.01,0.00,VWS V14.01,2013-04-07 07:10:00,
2013-04-07 03:11:00,54.6,48.9,29.63,SE,145,3.0,5.0,81,0.00,,,0.01,0.00,VWS V14.01,2013-04-07 07:11:00,
2013-04-07 03:12:00,54.6,48.9,29.63,SE,143,3.0,4.0,81,0.00,,,0.01,0.00,VWS V14.01,2013-04-07 07:12:00,
2013-04-07 03:13:00,54.6,48.9,29.63,SSE,149,4.0,4.0,81,0.00,,,0.01,0.00,VWS V14.01,2013-04-07 07:13:00,
2013-04-07 03:14:00,54.6,48.9,29.63,SSE,153,4.0,5.0,81,0.00,,,0.01,0.00,VWS V14.01,2013-04-07 07:14:00,
2013-04-07 03:15:00,54.6,48.9,29.62,SSE,160,4.0,7.0,81,0.00,,,0.01,0.00,VWS V14.01,2013-04-07 07:15:00,
2013-04-07 03:16:00,54.6,48.9,29.62,SSE,160,4.0,7.0,81,0.00,,,0.01,0.00,VWS V14.01,2013-04-07 07:16:00,
2013-04-07 03:17:00,54.6,48.6,29.62,SE,143,3.0,5.0,80,0.00,,,0.01,0.00,VWS V14.01,2013-04-07 07:17:00,
2013-04-07 03:18:00,54.6,48.6,29.62,SSE,167,5.0,5.0,80,0.00,,,0.01,0.00,VWS V14.01,2013-04-07 07:18:00,
2013-04-07 03:19:00,54.5,48.5,29.62,SSE,163,3.0,5.0,80,0.00,,,0.01,0.00,VWS V14.01,2013-04-07 07:19:00,
2013-04-07 03:20:00,54.4,48.4,29.62,SSE,156,3.0,5.0,80,0.00,,,0.01,0.00,VWS V14.01,2013-04-07 07:20:00,
2013-04-07 03:21:00,54.4,48.4,29.62,SSE,156,3.0,5.0,80,0.00,,,0.01,0.00,VWS V14.01,2013-04-07 07:21:00,
2013-04-07 03:22:00,54.3,48.3,29.62,SSE,148,3.0,5.0,80,0.00,,,0.01,0.00,VWS V14.01,2013-04-07 07:22:00,
2013-04-07 03:23:00,54.3,48.3,29.62,SSE,162,4.0,7.0,80,0.00,,,0.01,0.00,VWS V14.01,2013-04-07 07:23:00,
2013-04-07 03:24:00,54.3,48.3,29.62,SSE,160,2.0,4.0,80,0.00,,,0.01,0.00,VWS V14.01,2013-04-07 07:24:00,
2013-04-07 03:25:00,54.2,48.2,29.62,SE,144,3.0,4.0,80,0.00,,,0.01,0.00,VWS V14.01,2013-04-07 07:25:00,
2013-04-07 03:26:00,54.2,48.2,29.62,SE,146,3.0,4.0,80,0.00,,,0.01,0.00,VWS V14.01,2013-04-07 07:26:00,
2013-04-07 03:27:00,54.2,48.2,29.62,SSE,160,3.0,5.0,80,0.00,,,0.01,0.00,VWS V14.01,2013-04-07 07:27:00,
2013-04-07 03:28:00,54.2,48.2,29.62,SSE,153,5.0,6.0,80,0.00,,,0.01,0.00,VWS V14.01,2013-04-07 07:28:00,
2013-04-07 03:29:00,54.2,48.2,29.62,SSE,153,4.0,5.0,80,0.00,,,0.01,0.00,VWS V14.01,2013-04-07 07:29:00,
2013-04-07 03:30:00,54.1,48.1,29.62,SSE,156,3.0,5.0,80,0.00,,,0.01,0.00,VWS V14.01,2013-04-07 07:30:00,
2013-04-07 03:31:00,54.1,48.1,29.62,SSE,156,3.0,5.0,80,0.00,,,0.01,0.00,VWS V14.01,2013-04-07 07:31:00,
2013-04-07 03:32:00,54.0,48.0,29.62,SSE,155,1.0,5.0,80,0.00,,,0.01,0.00,VWS V14.01,2013-04-07 07:32:00,
2013-04-07 03:33:00,54.0,48.0,29.62,SSE,163,1.0,4.0,80,0.00,,,0.01,0.00,VWS V14.01,2013-04-07 07:33:00,
2013-04-07 03:34:00,53.9,47.9,29.62,SSE,163,2.0,3.0,80,0.00,,,0.01,0.00,VWS V14.01,2013-04-07 07:34:00,
2013-04-07 03:35:00,53.8,47.8,29.62,SE,130,3.0,7.0,80,0.00,,,0.01,0.00,VWS V14.01,2013-04-07 07:35:00,
2013-04-07 03:36:00,53.8,47.8,29.62,SE,130,2.0,7.0,80,0.00,,,0.01,0.00,VWS V14.01,2013-04-07 07:36:00,
2013-04-07 03:37:00,53.8,47.8,29.62,SSE,164,5.0,5.0,80,0.00,,,0.01,0.00,VWS V14.01,2013-04-07 07:37:00,
2013-04-07 03:38:00,53.8,47.8,29.62,SSE,154,4.0,11.0,80,0.00,,,0.01,0.00,VWS V14.01,2013-04-07 07:38:00,
2013-04-07 03:39:00,53.9,47.9,29.62,SE,141,6.0,13.0,80,0.00,,,0.01,0.00,VWS V14.01,2013-04-07 07:39:00,
2013-04-07 03:40:00,53.9,47.9,29.61,SSW,194,4.0,9.0,80,0.00,,,0.01,0.00,VWS V14.01,2013-04-07 07:40:00,
2013-04-07 03:41:00,53.9,47.9,29.61,SSW,212,7.0,9.0,80,0.00,,,0.01,0.00,VWS V14.01,2013-04-07 07:41:00,
2013-04-07 03:42:00,53.9,47.9,29.61,SSW,196,4.0,8.0,80,0.00,,,0.01,0.00,VWS V14.01,2013-04-07 07:42:00,
2013-04-07 03:43:00,53.9,47.9,29.62,SSE,163,2.0,4.0,80,0.00,,,0.01,0.00,VWS V14.01,2013-04-07 07:43:00,
2013-04-07 03:44:00,53.9,47.9,29.62,SSW,196,7.0,9.0,80,0.00,,,0.01,0.00,VWS V14.01,2013-04-07 07:44:00,
2013-04-07 03:45:00,53.9,47.9,29.62,SSE,151,4.0,6.0,80,0.00,,,0.01,0.00,VWS V14.01,2013-04-07 07:45:00,
2013-04-07 03:46:00,53.9,47.9,29.62,SSE,151,3.0,6.0,80,0.00,,,0.01,0.00,VWS V14.01,2013-04-07 07:46:00,
2013-04-07 03:47:00,53.9,47.9,29.62,South,175,3.0,6.0,80,0.00,,,0.01,0.00,VWS V14.01,2013-04-07 07:47:00,
2013-04-07 03:48:00,53.9,47.5,29.62,SE,133,3.0,9.0,79,0.00,,,0.01,0.00,VWS V14.01,2013-04-07 07:48:00,
2013-04-07 03:49:00,53.9,47.5,29.62,South,182,7.0,8.0,79,0.00,,,0.01,0.00,VWS V14.01,2013-04-07 07:49:00,
2013-04-07 03:50:00,53.8,47.5,29.62,SSE,163,2.0,2.0,79,0.00,,,0.01,0.00,VWS V14.01,2013-04-07 07:50:00,
2013-04-07 03:51:00,53.8,47.5,29.62,SSE,163,2.0,7.0,79,0.00,,,0.01,0.00,VWS V14.01,2013-04-07 07:51:00,
2013-04-07 03:52:00,53.8,47.5,29.62,South,169,2.0,5.0,79,0.00,,,0.01,0.00,VWS V14.01,2013-04-07 07:52:00,
2013-04-07 03:53:00,53.9,47.5,29.62,SSE,159,3.0,6.0,79,0.00,,,0.01,0.00,VWS V14.01,2013-04-07 07:53:00,
2013-04-07 03:54:00,53.9,47.5,29.62,SE,136,4.0,7.0,79,0.00,,,0.01,0.00,VWS V14.01,2013-04-07 07:54:00,
2013-04-07 03:55:00,53.9,47.5,29.61,SSE,159,4.0,4.0,79,0.00,,,0.01,0.00,VWS V14.01,2013-04-07 07:55:00,
2013-04-07 03:56:00,53.9,47.5,29.61,SSE,159,4.0,10.0,79,0.00,,,0.01,0.00,VWS V14.01,2013-04-07 07:56:00,
2013-04-07 03:57:00,53.9,47.5,29.62,South,180,4.0,6.0,79,0.00,,,0.01,0.00,VWS V14.01,2013-04-07 07:57:00,
2013-04-07 03:58:00,53.9,47.5,29.62,South,184,4.0,4.0,79,0.00,,,0.01,0.00,VWS V14.01,2013-04-07 07:58:00,
2013-04-07 03:59:00,53.9,47.5,29.62,South,177,4.0,4.0,79,0.00,,,0.01,0.00,VWS V14.01,2013-04-07 07:59:00,
2013-04-07 04:00:00,54.0,47.6,29.62,SSE,148,2.0,4.0,79,0.00,,,0.01,0.00,VWS V14.01,2013-04-07 08:00:00,
2013-04-07 04:01:00,54.0,47.6,29.62,SSE,148,2.0,4.0,79,0.00,,,0.01,0.00,VWS V14.01,2013-04-07 08:01:00,
2013-04-07 04:02:00,53.9,47.2,29.62,South,171,2.0,4.0,78,0.00,,,0.01,0.00,VWS V14.01,2013-04-07 08:02:00,
2013-04-07 04:03:00,53.9,47.2,29.62,South,170,4.0,4.0,78,0.00,,,0.01,0.00,VWS V14.01,2013-04-07 08:03:00,
2013-04-07 04:04:00,54.0,47.3,29.62,East,98,3.0,5.0,78,0.00,,,0.01,0.00,VWS V14.01,2013-04-07 08:04:00,
2013-04-07 04:05:00,54.1,47.4,29.62,SSE,157,3.0,4.0,78,0.00,,,0.01,0.00,VWS V14.01,2013-04-07 08:05:00,
2013-04-07 04:06:00,54.1,47.4,29.62,SSE,157,3.0,4.0,78,0.00,,,0.01,0.00,VWS V14.01,2013-04-07 08:06:00,
2013-04-07 04:07:00,54.1,47.4,29.62,South,182,5.0,11.0,78,0.00,,,0.01,0.00,VWS V14.01,2013-04-07 08:07:00,
2013-04-07 04:08:00,54.2,47.5,29.62,ESE,114,5.0,8.0,78,0.00,,,0.01,0.00,VWS V14.01,2013-04-07 08:08:00,
2013-04-07 04:09:00,54.2,47.2,29.62,SW,217,4.0,6.0,77,0.00,,,0.01,0.00,VWS V14.01,2013-04-07 08:09:00,
2013-04-07 04:10:00,54.3,47.2,29.62,South,178,4.0,4.0,77,0.00,,,0.01,0.00,VWS V14.01,2013-04-07 08:10:00,
2013-04-07 04:11:00,54.3,47.2,29.61,SSE,167,4.0,6.0,77,0.00,,,0.01,0.00,VWS V14.01,2013-04-07 08:11:00,
2013-04-07 04:12:00,54.4,47.3,29.62,SSE,165,2.0,9.0,77,0.00,,,0.01,0.00,VWS V14.01,2013-04-07 08:12:00,
2013-04-07 04:13:00,54.4,47.0,29.62,SSW,202,7.0,7.0,76,0.00,,,0.01,0.00,VWS V14.01,2013-04-07 08:13:00,
2013-04-07 04:14:00,54.5,47.1,29.62,SW,222,8.0,9.0,76,0.00,,,0.01,0.00,VWS V14.01,2013-04-07 08:14:00,
2013-04-07 04:15:00,54.6,47.2,29.62,SSE,148,3.0,4.0,76,0.00,,,0.01,0.00,VWS V14.01,2013-04-07 08:15:00,
2013-04-07 04:16:00,54.6,47.2,29.62,SSE,161,3.0,7.0,76,0.00,,,0.01,0.00,VWS V14.01,2013-04-07 08:16:00,
2013-04-07 04:17:00,54.6,47.2,29.62,SSW,195,2.0,4.0,76,0.00,,,0.01,0.00,VWS V14.01,2013-04-07 08:17:00,
2013-04-07 04:18:00,54.6,46.8,29.62,SSW,209,4.0,6.0,75,0.00,,,0.01,0.00,VWS V14.01,2013-04-07 08:18:00,
2013-04-07 04:19:00,54.6,46.8,29.62,SW,223,6.0,9.0,75,0.00,,,0.01,0.00,VWS V14.01,2013-04-07 08:19:00,
2013-04-07 04:20:00,54.7,46.9,29.62,SSW,193,12.0,14.0,75,0.00,,,0.01,0.00,VWS V14.01,2013-04-07 08:20:00,
2013-04-07 04:21:00,54.7,46.9,29.62,South,186,14.0,14.0,75,0.00,,,0.01,0.00,VWS V14.01,2013-04-07 08:21:00,
2013-04-07 04:22:00,54.8,47.0,29.62,South,182,7.0,19.0,75,0.00,,,0.01,0.00,VWS V14.01,2013-04-07 08:22:00,
2013-04-07 04:23:00,54.9,47.1,29.62,South,190,2.0,9.0,75,0.00,,,0.01,0.00,VWS V14.01,2013-04-07 08:23:00,
2013-04-07 04:24:00,54.9,47.1,29.62,SSE,159,6.0,6.0,75,0.00,,,0.01,0.00,VWS V14.01,2013-04-07 08:24:00,
2013-04-07 04:25:00,55.0,46.9,29.62,South,184,5.0,6.0,74,0.00,,,0.01,0.00,VWS V14.01,2013-04-07 08:25:00,
2013-04-07 04:26:00,54.9,46.8,29.62,SSW,193,6.0,15.0,74,0.00,,,0.01,0.00,VWS V14.01,2013-04-07 08:26:00,
2013-04-07 04:27:00,55.0,46.9,29.62,SW,225,3.0,9.0,74,0.00,,,0.01,0.00,VWS V14.01,2013-04-07 08:27:00,
2013-04-07 04:28:00,55.1,47.0,29.62,SSW,212,7.0,10.0,74,0.00,,,0.01,0.00,VWS V14.01,2013-04-07 08:28:00,
2013-04-07 04:29:00,55.2,46.7,29.62,SW,227,10.0,15.0,73,0.00,,,0.01,0.00,VWS V14.01,2013-04-07 08:29:00,
2013-04-07 04:30:00,55.4,46.9,29.62,SSW,203,7.0,7.0,73,0.00,,,0.01,0.00,VWS V14.01,2013-04-07 08:30:00,
2013-04-07 04:31:00,55.4,46.9,29.62,SSW,207,7.0,11.0,73,0.00,,,0.01,0.00,VWS V14.01,2013-04-07 08:31:00,
2013-04-07 04:32:00,55.4,46.9,29.62,SSW,210,4.0,7.0,73,0.00,,,0.01,0.00,VWS V14.01,2013-04-07 08:32:00,
2013-04-07 04:33:00,55.4,46.9,29.63,SSE,165,6.0,14.0,73,0.00,,,0.01,0.00,VWS V14.01,2013-04-07 08:33:00,
2013-04-07 04:34:00,55.4,46.9,29.63,SW,215,13.0,13.0,73,0.00,,,0.01,0.00,VWS V14.01,2013-04-07 08:34:00,
2013-04-07 04:35:00,55.6,46.7,29.63,South,190,7.0,12.0,72,0.00,,,0.01,0.00,VWS V14.01,2013-04-07 08:35:00,
2013-04-07 04:36:00,55.6,46.7,29.63,South,190,7.0,12.0,72,0.00,,,0.01,0.00,VWS V14.01,2013-04-07 08:36:00,
2013-04-07 04:37:00,55.6,46.7,29.62,SW,231,7.0,14.0,72,0.00,,,0.01,0.00,VWS V14.01,2013-04-07 08:37:00,
2013-04-07 04:38:00,55.7,46.8,29.63,SSW,208,7.0,19.0,72,0.00,,,0.01,0.00,VWS V14.01,2013-04-07 08:38:00,
2013-04-07 04:39:00,55.7,46.8,29.63,WSW,252,8.0,19.0,72,0.00,,,0.01,0.00,VWS V14.01,2013-04-07 08:39:00,
2013-04-07 04:40:00,55.8,46.9,29.62,WSW,243,3.0,3.0,72,0.00,,,0.01,0.00,VWS V14.01,2013-04-07 08:40:00,
2013-04-07 04:41:00,55.8,46.9,29.62,WSW,243,3.0,9.0,72,0.00,,,0.01,0.00,VWS V14.01,2013-04-07 08:41:00,
2013-04-07 04:42:00,55.8,46.5,29.63,South,180,5.0,6.0,71,0.00,,,0.01,0.00,VWS V14.01,2013-04-07 08:42:00,
2013-04-07 04:43:00,55.8,46.9,29.63,WSW,241,5.0,7.0,72,0.00,,,0.01,0.00,VWS V14.01,2013-04-07 08:43:00,
2013-04-07 04:44:00,55.7,46.8,29.63,SSW,202,5.0,15.0,72,0.00,,,0.01,0.00,VWS V14.01,2013-04-07 08:44:00,
2013-04-07 04:45:00,55.7,46.8,29.63,SW,232,14.0,15.0,72,0.00,,,0.01,0.00,VWS V14.01,2013-04-07 08:45:00,
2013-04-07 04:46:00,55.7,46.8,29.63,SW,228,15.0,19.0,72,0.00,,,0.01,0.00,VWS V14.01,2013-04-07 08:46:00,
2013-04-07 04:47:00,55.7,46.8,29.62,South,173,16.0,18.0,72,0.00,,,0.01,0.00,VWS V14.01,2013-04-07 08:47:00,
2013-04-07 04:48:00,55.8,46.9,29.63,South,178,8.0,16.0,72,0.00,,,0.01,0.00,VWS V14.01,2013-04-07 08:48:00,
2013-04-07 04:49:00,55.8,46.9,29.63,SW,219,12.0,14.0,72,0.00,,,0.01,0.00,VWS V14.01,2013-04-07 08:49:00,
2013-04-07 04:50:00,55.8,46.9,29.63,SW,219,12.0,12.0,72,0.00,,,0.01,0.00,VWS V14.01,2013-04-07 08:50:00,
2013-04-07 04:51:00,55.8,46.9,29.63,SW,219,12.0,12.0,72,0.00,,,0.01,0.00,VWS V14.01,2013-04-07 08:51:00,
2013-04-07 04:52:00,55.8,46.9,29.63,WSW,252,11.0,12.0,72,0.00,,,0.01,0.00,VWS V14.01,2013-04-07 08:52:00,
2013-04-07 04:53:00,55.8,46.9,29.63,SW,231,8.0,16.0,72,0.00,,,0.01,0.00,VWS V14.01,2013-04-07 08:53:00,
2013-04-07 04:54:00,55.7,46.8,29.63,SW,224,3.0,11.0,72,0.00,,,0.01,0.00,VWS V14.01,2013-04-07 08:54:00,
2013-04-07 04:55:00,55.6,46.7,29.63,South,188,5.0,10.0,72,0.00,,,0.01,0.00,VWS V14.01,2013-04-07 08:55:00,
2013-04-07 04:56:00,55.6,46.7,29.63,South,188,5.0,10.0,72,0.00,,,0.01,0.00,VWS V14.01,2013-04-07 08:56:00,
2013-04-07 04:57:00,55.5,46.6,29.63,SSW,211,7.0,9.0,72,0.00,,,0.01,0.00,VWS V14.01,2013-04-07 08:57:00,
2013-04-07 04:58:00,55.4,46.9,29.63,SW,215,18.0,18.0,73,0.00,,,0.01,0.00,VWS V14.01,2013-04-07 08:58:00,
2013-04-07 04:59:00,55.4,46.9,29.63,SW,221,15.0,18.0,73,0.00,,,0.01,0.00,VWS V14.01,2013-04-07 08:59:00,
2013-04-07 05:00:00,55.3,46.8,29.63,South,182,8.0,13.0,73,0.00,,,0.01,0.00,VWS V14.01,2013-04-07 09:00:00,
2013-04-07 05:01:00,55.3,46.8,29.63,South,182,8.0,13.0,73,0.00,,,0.01,0.00,VWS V14.01,2013-04-07 09:01:00,
2013-04-07 05:02:00,55.2,46.7,29.63,SW,224,3.0,13.0,73,0.00,,,0.01,0.00,VWS V14.01,2013-04-07 09:02:00,
2013-04-07 05:03:00,55.2,46.7,29.64,SSW,200,11.0,12.0,73,0.00,,,0.01,0.00,VWS V14.01,2013-04-07 09:03:00,
2013-04-07 05:04:00,55.1,46.6,29.63,South,171,8.0,11.0,73,0.00,,,0.01,0.00,VWS V14.01,2013-04-07 09:04:00,
2013-04-07 05:05:00,55.0,46.9,29.64,SSW,199,6.0,13.0,74,0.00,,,0.01,0.00,VWS V14.01,2013-04-07 09:05:00,
2013-04-07 05:06:00,55.0,46.9,29.64,SW,216,6.0,13.0,74,0.00,,,0.01,0.00,VWS V14.01,2013-04-07 09:06:00,
2013-04-07 05:07:00,54.9,46.8,29.64,WSW,237,8.0,11.0,74,0.00,,,0.01,0.00,VWS V14.01,2013-04-07 09:07:00,
2013-04-07 05:08:00,54.8,46.7,29.64,SW,219,11.0,14.0,74,0.00,,,0.01,0.00,VWS V14.01,2013-04-07 09:08:00,
2013-04-07 05:09:00,54.8,47.0,29.64,WSW,238,5.0,15.0,75,0.00,,,0.01,0.00,VWS V14.01,2013-04-07 09:09:00,
2013-04-07 05:10:00,54.8,47.0,29.64,SSW,204,6.0,9.0,75,0.00,,,0.01,0.00,VWS V14.01,2013-04-07 09:10:00,
2013-04-07 05:11:00,54.8,47.0,29.64,SSW,204,6.0,9.0,75,0.00,,,0.01,0.00,VWS V14.01,2013-04-07 09:11:00,
2013-04-07 05:12:00,54.8,47.0,29.64,SW,215,12.0,15.0,75,0.00,,,0.01,0.00,VWS V14.01,2013-04-07 09:12:00,
2013-04-07 05:13:00,54.7,46.9,29.64,WSW,246,7.0,15.0,75,0.00,,,0.01,0.00,VWS V14.01,2013-04-07 09:13:00,
2013-04-07 05:14:00,54.7,46.9,29.64,SW,218,8.0,8.0,75,0.00,,,0.01,0.00,VWS V14.01,2013-04-07 09:14:00,
2013-04-07 05:15:00,54.7,46.9,29.65,West,269,6.0,12.0,75,0.00,,,0.01,0.00,VWS V14.01,2013-04-07 09:15:00,
2013-04-07 05:16:00,54.7,46.9,29.65,West,269,6.0,12.0,75,0.00,,,0.01,0.00,VWS V14.01,2013-04-07 09:16:00,
2013-04-07 05:17:00,54.6,46.8,29.65,SW,215,9.0,17.0,75,0.00,,,0.01,0.00,VWS V14.01,2013-04-07 09:17:00,
2013-04-07 05:18:00,54.6,47.2,29.65,SW,215,12.0,13.0,76,0.00,,,0.01,0.00,VWS V14.01,2013-04-07 09:18:00,
2013-04-07 05:19:00,54.6,47.2,29.65,SSW,208,15.0,19.0,76,0.00,,,0.01,0.00,VWS V14.01,2013-04-07 09:19:00,
2013-04-07 05:20:00,54.6,47.2,29.65,SW,215,12.0,13.0,76,0.00,,,0.01,0.00,VWS V14.01,2013-04-07 09:20:00,
2013-04-07 05:21:00,54.6,47.2,29.65,SW,215,12.0,13.0,76,0.00,,,0.01,0.00,VWS V14.01,2013-04-07 09:21:00,
2013-04-07 05:22:00,54.6,47.2,29.65,South,177,6.0,12.0,76,0.00,,,0.01,0.00,VWS V14.01,2013-04-07 09:22:00,
2013-04-07 05:23:00,54.5,47.1,29.65,SW,235,6.0,9.0,76,0.00,,,0.01,0.00,VWS V14.01,2013-04-07 09:23:00,
2013-04-07 05:24:00,54.5,47.1,29.65,SW,217,6.0,9.0,76,0.00,,,0.01,0.00,VWS V14.01,2013-04-07 09:24:00,
2013-04-07 05:25:00,54.5,47.5,29.65,SW,224,5.0,9.0,77,0.00,,,0.01,0.00,VWS V14.01,2013-04-07 09:25:00,
2013-04-07 05:26:00,54.5,47.5,29.65,SW,224,5.0,9.0,77,0.00,,,0.01,0.00,VWS V14.01,2013-04-07 09:26:00,
2013-04-07 05:27:00,54.4,47.3,29.65,SSW,206,3.0,12.0,77,0.00,,,0.01,0.00,VWS V14.01,2013-04-07 09:27:00,
2013-04-07 05:28:00,54.4,47.3,29.65,SW,217,6.0,11.0,77,0.00,,,0.01,0.00,VWS V14.01,2013-04-07 09:28:00,
2013-04-07 05:29:00,54.4,47.3,29.65,SW,220,7.0,10.0,77,0.00,,,0.01,0.00,VWS V14.01,2013-04-07 09:29:00,
2013-04-07 05:30:00,54.4,47.3,29.65,South,188,13.0,15.0,77,0.00,,,0.01,0.00,VWS V14.01,2013-04-07 09:30:00,
2013-04-07 05:31:00,54.4,47.3,29.65,South,188,13.0,15.0,77,0.00,,,0.01,0.00,VWS V14.01,2013-04-07 09:31:00,
2013-04-07 05:32:00,54.3,47.2,29.66,SW,217,8.0,13.0,77,0.00,,,0.01,0.00,VWS V14.01,2013-04-07 09:32:00,
2013-04-07 05:33:00,54.4,47.3,29.66,SSW,212,11.0,13.0,77,0.00,,,0.01,0.00,VWS V14.01,2013-04-07 09:33:00,
2013-04-07 05:34:00,54.4,47.3,29.66,South,180,5.0,11.0,77,0.00,,,0.01,0.00,VWS V14.01,2013-04-07 09:34:00,
2013-04-07 05:35:00,54.2,47.5,29.66,SW,223,7.0,12.0,78,0.00,,,0.01,0.00,VWS V14.01,2013-04-07 09:35:00,
2013-04-07 05:36:00,54.2,47.5,29.66,SW,223,7.0,12.0,78,0.00,,,0.01,0.00,VWS V14.01,2013-04-07 09:36:00,
2013-04-07 05:37:00,54.2,47.5,29.66,SSE,157,6.0,7.0,78,0.00,,,0.01,0.00,VWS V14.01,2013-04-07 09:37:00,
2013-04-07 05:38:00,54.2,47.5,29.66,West,275,6.0,9.0,78,0.00,,,0.01,0.00,VWS V14.01,2013-04-07 09:38:00,
2013-04-07 05:39:00,54.2,47.5,29.66,SSW,207,3.0,7.0,78,0.00,,,0.01,0.00,VWS V14.01,2013-04-07 09:39:00,
2013-04-07 05:40:00,54.1,47.4,29.66,SW,234,13.0,13.0,78,0.00,,,0.01,0.00,VWS V14.01,2013-04-07 09:40:00,
2013-04-07 05:41:00,54.1,47.4,29.66,SSW,197,9.0,14.0,78,0.00,,,0.01,0.00,VWS V14.01,2013-04-07 09:41:00,
2013-04-07 05:42:00,54.1,47.4,29.66,WSW,244,4.0,9.0,78,0.00,,,0.01,0.00,VWS V14.01,2013-04-07 09:42:00,
2013-04-07 05:43:00,54.1,47.4,29.67,SW,236,8.0,11.0,78,0.00,,,0.01,0.00,VWS V14.01,2013-04-07 09:43:00,
2013-04-07 05:44:00,54.1,47.4,29.67,South,177,5.0,9.0,78,0.00,,,0.01,0.00,VWS V14.01,2013-04-07 09:44:00,
2013-04-07 05:45:00,54.1,47.4,29.67,WSW,240,7.0,7.0,78,0.00,,,0.01,0.00,VWS V14.01,2013-04-07 09:45:00,
2013-04-07 05:46:00,54.1,47.4,29.67,SW,236,5.0,8.0,78,0.00,,,0.01,0.00,VWS V14.01,2013-04-07 09:46:00,
2013-04-07 05:47:00,54.0,47.6,29.67,West,261,6.0,13.0,79,0.00,,,0.01,0.00,VWS V14.01,2013-04-07 09:47:00,
2013-04-07 05:48:00,54.0,47.6,29.67,SW,220,2.0,9.0,79,0.00,,,0.01,0.00,VWS V14.01,2013-04-07 09:48:00,
2013-04-07 05:49:00,54.0,47.6,29.67,SSW,205,5.0,8.0,79,0.00,,,0.01,0.00,VWS V14.01,2013-04-07 09:49:00,
2013-04-07 05:50:00,53.9,47.5,29.67,SW,219,7.0,15.0,79,0.00,,,0.01,0.00,VWS V14.01,2013-04-07 09:50:00,
2013-04-07 05:51:00,53.9,47.5,29.67,South,188,6.0,15.0,79,0.00,,,0.01,0.00,VWS V14.01,2013-04-07 09:51:00,
2013-04-07 05:52:00,53.9,47.5,29.67,SW,234,8.0,12.0,79,0.00,,,0.01,0.00,VWS V14.01,2013-04-07 09:52:00,
2013-04-07 05:53:00,53.9,47.5,29.67,SSW,210,9.0,9.0,79,0.00,,,0.01,0.00,VWS V14.01,2013-04-07 09:53:00,
2013-04-07 05:54:00,53.9,47.5,29.67,SW,222,4.0,9.0,79,0.00,,,0.01,0.00,VWS V14.01,2013-04-07 09:54:00,
2013-04-07 05:55:00,53.8,47.5,29.67,SW,220,3.0,8.0,79,0.00,,,0.01,0.00,VWS V14.01,2013-04-07 09:55:00,
2013-04-07 05:56:00,53.8,47.5,29.67,SW,220,3.0,8.0,79,0.00,,,0.01,0.00,VWS V14.01,2013-04-07 09:56:00,
2013-04-07 05:57:00,53.8,47.5,29.67,SW,227,10.0,10.0,79,0.00,,,0.01,0.00,VWS V14.01,2013-04-07 09:57:00,
2013-04-07 05:58:00,53.8,47.5,29.67,SW,220,3.0,10.0,79,0.00,,,0.01,0.00,VWS V14.01,2013-04-07 09:58:00,
2013-04-07 05:59:00,53.7,47.3,29.68,SSW,202,7.0,11.0,79,0.00,,,0.01,0.00,VWS V14.01,2013-04-07 09:59:00,
2013-04-07 06:00:00,53.7,47.7,29.68,SSW,212,6.0,6.0,80,0.00,,,0.01,0.00,VWS V14.01,2013-04-07 10:00:00,
2013-04-07 06:01:00,53.7,47.7,29.68,SW,218,6.0,9.0,80,0.00,,,0.01,0.00,VWS V14.01,2013-04-07 10:01:00,
2013-04-07 06:02:00,53.7,47.7,29.68,SSW,192,7.0,9.0,80,0.00,,,0.01,0.00,VWS V14.01,2013-04-07 10:02:00,
2013-04-07 06:03:00,53.7,47.7,29.68,SW,224,6.0,8.0,80,0.00,,,0.01,0.00,VWS V14.01,2013-04-07 10:03:00,
2013-04-07 06:04:00,53.7,47.7,29.68,SW,214,4.0,9.0,80,0.00,,,0.01,0.00,VWS V14.01,2013-04-07 10:04:00,
2013-04-07 06:05:00,53.6,47.6,29.68,WSW,244,7.0,7.0,80,0.00,,,0.01,0.00,VWS V14.01,2013-04-07 10:05:00,
2013-04-07 06:06:00,53.6,47.6,29.68,WSW,244,7.0,8.0,80,0.00,,,0.01,0.00,VWS V14.01,2013-04-07 10:06:00,
2013-04-07 06:07:00,53.6,47.6,29.68,SW,214,11.0,13.0,80,0.00,,,0.01,0.00,VWS V14.01,2013-04-07 10:07:00,
2013-04-07 06:08:00,53.6,47.6,29.68,SW,230,4.0,12.0,80,0.00,,,0.01,0.00,VWS V14.01,2013-04-07 10:08:00,
2013-04-07 06:09:00,53.6,47.6,29.69,WSW,242,6.0,8.0,80,0.00,,,0.01,0.00,VWS V14.01,2013-04-07 10:09:00,
2013-04-07 06:10:00,53.5,47.5,29.69,SW,221,18.0,18.0,80,0.00,,,0.01,0.00,VWS V14.01,2013-04-07 10:10:00,
2013-04-07 06:11:00,53.5,47.5,29.69,SW,221,18.0,18.0,80,0.00,,,0.01,0.00,VWS V14.01,2013-04-07 10:11:00,
2013-04-07 06:12:00,53.5,47.5,29.69,WSW,256,15.0,18.0,80,0.00,,,0.01,0.00,VWS V14.01,2013-04-07 10:12:00,
2013-04-07 06:13:00,53.5,47.5,29.69,West,270,10.0,15.0,80,0.00,,,0.01,0.00,VWS V14.01,2013-04-07 10:13:00,
2013-04-07 06:14:00,53.5,47.5,29.69,SW,236,7.0,12.0,80,0.00,,,0.01,0.00,VWS V14.01,2013-04-07 10:14:00,
2013-04-07 06:15:00,53.5,47.2,29.69,SW,230,14.0,15.0,79,0.00,,,0.01,0.00,VWS V14.01,2013-04-07 10:15:00,
2013-04-07 06:16:00,53.5,47.2,29.69,SW,230,14.0,15.0,79,0.00,,,0.01,0.00,VWS V14.01,2013-04-07 10:16:00,
2013-04-07 06:17:00,53.5,47.2,29.69,West,266,9.0,14.0,79,0.00,,,0.01,0.00,VWS V14.01,2013-04-07 10:17:00,
2013-04-07 06:18:00,53.4,47.1,29.69,SSW,203,9.0,14.0,79,0.00,,,0.01,0.00,VWS V14.01,2013-04-07 10:18:00,
2013-04-07 06:19:00,53.4,47.1,29.69,SW,216,7.0,18.0,79,0.00,,,0.01,0.00,VWS V14.01,2013-04-07 10:19:00,
2013-04-07 06:20:00,53.3,47.0,29.69,WSW,251,14.0,16.0,79,0.00,,,0.01,0.00,VWS V14.01,2013-04-07 10:20:00,
2013-04-07 06:21:00,53.3,47.0,29.69,WSW,251,14.0,16.0,79,0.00,,,0.01,0.00,VWS V14.01,2013-04-07 10:21:00,
2013-04-07 06:22:00,53.3,47.0,29.70,SSW,211,7.0,16.0,79,0.00,,,0.01,0.00,VWS V14.01,2013-04-07 10:22:00,
2013-04-07 06:23:00,53.3,47.0,29.69,West,273,10.0,14.0,79,0.00,,,0.01,0.00,VWS V14.01,2013-04-07 10:23:00,
2013-04-07 06:24:00,53.2,46.9,29.69,WSW,254,9.0,11.0,79,0.00,,,0.01,0.00,VWS V14.01,2013-04-07 10:24:00,
2013-04-07 06:25:00,53.1,46.8,29.70,SSW,211,7.0,23.0,79,0.00,,,0.01,0.00,VWS V14.01,2013-04-07 10:25:00,
2013-04-07 06:26:00,53.1,46.8,29.70,SW,221,10.0,23.0,79,0.00,,,0.01,0.00,VWS V14.01,2013-04-07 10:26:00,
2013-04-07 06:27:00,53.0,46.7,29.70,West,260,12.0,17.0,79,0.00,,,0.01,0.00,VWS V14.01,2013-04-07 10:27:00,
2013-04-07 06:28:00,52.9,46.6,29.70,West,262,8.0,15.0,79,0.00,,,0.01,0.00,VWS V14.01,2013-04-07 10:28:00,
2013-04-07 06:29:00,52.9,46.6,29.70,West,261,5.0,11.0,79,0.00,,,0.01,0.00,VWS V14.01,2013-04-07 10:29:00,
2013-04-07 06:30:00,52.7,46.7,29.70,WSW,245,8.0,17.0,80,0.00,,,0.01,0.00,VWS V14.01,2013-04-07 10:30:00,
2013-04-07 06:31:00,52.7,46.7,29.70,WSW,245,8.0,17.0,80,0.00,,,0.01,0.00,VWS V14.01,2013-04-07 10:31:00,
2013-04-07 06:32:00,52.6,46.6,29.70,SW,234,11.0,18.0,80,0.00,,,0.01,0.00,VWS V14.01,2013-04-07 10:32:00,
2013-04-07 06:33:00,52.5,46.5,29.71,WSW,246,10.0,21.0,80,0.00,,,0.01,0.00,VWS V14.01,2013-04-07 10:33:00,
2013-04-07 06:34:00,52.5,46.5,29.71,SSW,194,11.0,22.0,80,0.00,,,0.01,0.00,VWS V14.01,2013-04-07 10:34:00,
2013-04-07 06:35:00,52.4,46.4,29.71,SW,233,7.0,11.0,80,0.00,,,0.01,0.00,VWS V14.01,2013-04-07 10:35:00,
2013-04-07 06:36:00,52.4,46.4,29.71,SW,217,10.0,18.0,80,0.00,,,0.01,0.00,VWS V14.01,2013-04-07 10:36:00,
2013-04-07 06:37:00,52.3,46.7,29.71,WSW,257,14.0,14.0,81,0.00,,,0.01,0.00,VWS V14.01,2013-04-07 10:37:00,
2013-04-07 06:38:00,52.3,46.7,29.71,WSW,248,14.0,17.0,81,0.00,,,0.01,0.00,VWS V14.01,2013-04-07 10:38:00,
2013-04-07 06:39:00,52.2,46.5,29.71,SSW,203,10.0,14.0,81,0.00,,,0.01,0.00,VWS V14.01,2013-04-07 10:39:00,
2013-04-07 06:40:00,52.1,46.5,29.71,West,277,13.0,14.0,81,0.00,,,0.01,0.00,VWS V14.01,2013-04-07 10:40:00,
2013-04-07 06:41:00,52.2,46.5,29.71,WSW,249,12.0,16.0,81,0.00,,,0.01,0.00,VWS V14.01,2013-04-07 10:41:00,
2013-04-07 06:42:00,52.1,46.5,29.71,WSW,247,11.0,17.0,81,0.00,,,0.01,0.00,VWS V14.01,2013-04-07 10:42:00,
2013-04-07 06:43:00,52.0,46.4,29.71,SW,217,8.0,11.0,81,0.00,,,0.01,0.00,VWS V14.01,2013-04-07 10:43:00,
2013-04-07 06:44:00,52.0,46.4,29.72,West,259,11.0,16.0,81,0.00,,,0.01,0.00,VWS V14.01,2013-04-07 10:44:00,
2013-04-07 06:45:00,51.9,46.3,29.72,WSW,242,13.0,22.0,81,0.00,,,0.01,0.00,VWS V14.01,2013-04-07 10:45:00,
2013-04-07 06:46:00,51.9,46.3,29.72,WSW,240,20.0,22.0,81,0.00,,,0.01,0.00,VWS V14.01,2013-04-07 10:46:00,
2013-04-07 06:47:00,51.8,46.2,29.72,WSW,245,14.0,22.0,81,0.00,,,0.01,0.00,VWS V14.01,2013-04-07 10:47:00,
2013-04-07 06:48:00,51.7,46.1,29.72,WSW,239,9.0,18.0,81,0.00,,,0.01,0.00,VWS V14.01,2013-04-07 10:48:00,
2013-04-07 06:49:00,51.6,46.0,29.72,WSW,242,11.0,20.0,81,0.00,,,0.01,0.00,VWS V14.01,2013-04-07 10:49:00,
2013-04-07 06:50:00,51.5,45.9,29.72,SW,230,9.0,19.0,81,0.00,,,0.01,0.00,VWS V14.01,2013-04-07 10:50:00,
2013-04-07 06:51:00,51.5,45.9,29.72,West,259,17.0,23.0,81,0.00,,,0.01,0.00,VWS V14.01,2013-04-07 10:51:00,
2013-04-07 06:52:00,51.4,45.8,29.72,WSW,257,12.0,23.0,81,0.00,,,0.01,0.00,VWS V14.01,2013-04-07 10:52:00,
2013-04-07 06:53:00,51.4,45.8,29.72,West,262,6.0,16.0,81,0.00,,,0.01,0.00,VWS V14.01,2013-04-07 10:53:00,
2013-04-07 06:54:00,51.3,45.7,29.72,West,265,7.0,12.0,81,0.00,,,0.01,0.00,VWS V14.01,2013-04-07 10:54:00,
2013-04-07 06:55:00,51.2,45.6,29.73,West,274,9.0,12.0,81,0.00,,,0.01,0.00,VWS V14.01,2013-04-07 10:55:00,
2013-04-07 06:56:00,51.1,45.5,29.72,West,266,13.0,16.0,81,0.00,,,0.01,0.00,VWS V14.01,2013-04-07 10:56:00,
2013-04-07 06:57:00,51.1,45.5,29.72,WSW,254,11.0,16.0,81,0.00,,,0.01,0.00,VWS V14.01,2013-04-07 10:57:00,
2013-04-07 06:58:00,51.0,45.4,29.73,SW,225,8.0,14.0,81,0.00,,,0.01,0.00,VWS V14.01,2013-04-07 10:58:00,
2013-04-07 06:59:00,51.0,45.4,29.73,WSW,256,12.0,16.0,81,0.00,,,0.01,0.00,VWS V14.01,2013-04-07 10:59:00,
2013-04-07 07:00:00,51.0,45.7,29.73,WSW,242,11.0,17.0,82,0.00,,,0.01,0.00,VWS V14.01,2013-04-07 11:00:00,
2013-04-07 07:01:00,50.9,45.6,29.73,SSW,194,11.0,11.0,82,0.00,,,0.01,0.00,VWS V14.01,2013-04-07 11:01:00,
2013-04-07 07:02:00,50.9,45.6,29.73,SSW,194,11.0,11.0,82,0.00,,,0.01,0.00,VWS V14.01,2013-04-07 11:02:00,
2013-04-07 07:03:00,50.9,45.6,29.73,SSW,209,8.0,12.0,82,0.00,,,0.01,0.00,VWS V14.01,2013-04-07 11:03:00,
2013-04-07 07:04:00,50.8,45.5,29.73,West,272,5.0,11.0,82,0.00,,,0.01,0.00,VWS V14.01,2013-04-07 11:04:00,
2013-04-07 07:05:00,50.8,45.5,29.73,WSW,258,6.0,8.0,82,0.00,,,0.01,0.00,VWS V14.01,2013-04-07 11:05:00,
2013-04-07 07:06:00,50.8,45.5,29.73,West,262,9.0,10.0,82,0.00,,,0.01,0.00,VWS V14.01,2013-04-07 11:06:00,
2013-04-07 07:07:00,50.8,45.5,29.73,West,267,6.0,10.0,82,0.00,,,0.01,0.00,VWS V14.01,2013-04-07 11:07:00,
2013-04-07 07:08:00,50.7,45.4,29.73,SW,223,4.0,8.0,82,0.00,,,0.01,0.00,VWS V14.01,2013-04-07 11:08:00,
2013-04-07 07:09:00,50.7,45.4,29.73,WSW,254,7.0,10.0,82,0.00,,,0.01,0.00,VWS V14.01,2013-04-07 11:09:00,
2013-04-07 07:10:00,50.7,45.4,29.73,West,267,5.0,11.0,82,0.00,,,0.01,0.00,VWS V14.01,2013-04-07 11:10:00,
2013-04-07 07:11:00,50.6,45.3,29.74,West,261,8.0,8.0,82,0.00,,,0.01,0.00,VWS V14.01,2013-04-07 11:11:00,
2013-04-07 07:12:00,50.6,45.3,29.74,SW,235,4.0,8.0,82,0.00,,,0.01,0.00,VWS V14.01,2013-04-07 11:12:00,
2013-04-07 07:13:00,50.6,45.3,29.74,WSW,254,11.0,12.0,82,0.00,,,0.01,0.00,VWS V14.01,2013-04-07 11:13:00,
2013-04-07 07:14:00,50.6,45.3,29.74,WSW,246,7.0,14.0,82,0.00,,,0.01,0.00,VWS V14.01,2013-04-07 11:14:00,
2013-04-07 07:15:00,50.6,45.3,29.74,WSW,240,14.0,15.0,82,0.00,,,0.01,0.00,VWS V14.01,2013-04-07 11:15:00,
2013-04-07 07:16:00,50.6,45.3,29.74,WSW,249,7.0,11.0,82,0.00,,,0.01,0.00,VWS V14.01,2013-04-07 11:16:00,
2013-04-07 07:17:00,50.6,45.3,29.74,West,273,6.0,11.0,82,0.00,,,0.01,0.00,VWS V14.01,2013-04-07 11:17:00,
2013-04-07 07:18:00,50.6,45.3,29.74,WNW,284,8.0,10.0,82,0.00,,,0.01,0.00,VWS V14.01,2013-04-07 11:18:00,
2013-04-07 07:19:00,50.5,45.2,29.74,WSW,246,9.0,12.0,82,0.00,,,0.01,0.00,VWS V14.01,2013-04-07 11:19:00,
2013-04-07 07:20:00,50.5,45.2,29.74,West,259,6.0,9.0,82,0.00,,,0.01,0.00,VWS V14.01,2013-04-07 11:20:00,
2013-04-07 07:21:00,50.5,45.2,29.74,West,275,13.0,13.0,82,0.00,,,0.01,0.00,VWS V14.01,2013-04-07 11:21:00,
2013-04-07 07:22:00,50.5,45.2,29.74,West,265,13.0,13.0,82,0.00,,,0.01,0.00,VWS V14.01,2013-04-07 11:22:00,
2013-04-07 07:23:00,50.5,45.2,29.74,WSW,254,11.0,17.0,82,0.00,,,0.01,0.00,VWS V14.01,2013-04-07 11:23:00,
2013-04-07 07:24:00,50.5,45.2,29.74,WNW,287,8.0,14.0,82,0.00,,,0.01,0.00,VWS V14.01,2013-04-07 11:24:00,
2013-04-07 07:25:00,50.5,45.2,29.75,SW,231,11.0,15.0,82,0.00,,,0.01,0.00,VWS V14.01,2013-04-07 11:25:00,
2013-04-07 07:26:00,50.5,45.2,29.75,West,272,9.0,9.0,82,0.00,,,0.01,0.00,VWS V14.01,2013-04-07 11:26:00,
2013-04-07 07:27:00,50.5,45.2,29.75,West,272,9.0,9.0,82,0.00,,,0.01,0.00,VWS V14.01,2013-04-07 11:27:00,
2013-04-07 07:28:00,50.5,45.2,29.75,WNW,290,8.0,9.0,82,0.00,,,0.01,0.00,VWS V14.01,2013-04-07 11:28:00,
2013-04-07 07:29:00,50.4,45.1,29.75,West,279,11.0,11.0,82,0.00,,,0.01,0.00,VWS V14.01,2013-04-07 11:29:00,
2013-04-07 07:30:00,50.4,45.1,29.75,West,277,15.0,17.0,82,0.00,,,0.01,0.00,VWS V14.01,2013-04-07 11:30:00,
2013-04-07 07:31:00,50.3,45.0,29.75,WSW,257,8.0,14.0,82,0.00,,,0.01,0.00,VWS V14.01,2013-04-07 11:31:00,
2013-04-07 07:32:00,50.3,45.0,29.75,WSW,257,8.0,14.0,82,0.00,,,0.01,0.00,VWS V14.01,2013-04-07 11:32:00,
2013-04-07 07:33:00,50.2,44.9,29.75,WSW,257,13.0,13.0,82,0.00,,,0.01,0.00,VWS V14.01,2013-04-07 11:33:00,
2013-04-07 07:34:00,50.1,44.8,29.75,WSW,240,9.0,18.0,82,0.00,,,0.01,0.00,VWS V14.01,2013-04-07 11:34:00,
2013-04-07 07:35:00,50.1,44.8,29.75,SW,232,8.0,12.0,82,0.00,,,0.01,0.00,VWS V14.01,2013-04-07 11:35:00,
2013-04-07 07:36:00,49.9,44.6,29.76,WSW,243,10.0,10.0,82,0.00,,,0.01,0.00,VWS V14.01,2013-04-07 11:36:00,
2013-04-07 07:37:00,49.9,44.6,29.76,WSW,243,10.0,11.0,82,0.00,,,0.01,0.00,VWS V14.01,2013-04-07 11:37:00,
2013-04-07 07:38:00,49.8,44.5,29.76,West,275,17.0,21.0,82,0.00,,,0.01,0.00,VWS V14.01,2013-04-07 11:38:00,
2013-04-07 07:39:00,49.8,44.5,29.76,West,261,7.0,17.0,82,0.00,,,0.01,0.00,VWS V14.01,2013-04-07 11:39:00,
2013-04-07 07:40:00,49.7,44.4,29.76,WNW,292,10.0,18.0,82,0.00,,,0.01,0.00,VWS V14.01,2013-04-07 11:40:00,
2013-04-07 07:41:00,49.6,44.3,29.76,West,259,8.0,8.0,82,0.00,,,0.01,5.00,VWS V14.01,2013-04-07 11:41:00,
2013-04-07 07:42:00,49.6,44.3,29.76,West,270,8.0,10.0,82,0.00,,,0.01,5.00,VWS V14.01,2013-04-07 11:42:00,
2013-04-07 07:43:00,49.6,44.3,29.76,WNW,290,8.0,8.0,82,0.00,,,0.01,5.00,VWS V14.01,2013-04-07 11:43:00,
2013-04-07 07:44:00,49.5,44.2,29.76,West,260,10.0,12.0,82,0.00,,,0.01,5.00,VWS V14.01,2013-04-07 11:44:00,
2013-04-07 07:45:00,49.5,44.2,29.76,WSW,252,7.0,15.0,82,0.00,,,0.01,5.00,VWS V14.01,2013-04-07 11:45:00,
2013-04-07 07:46:00,49.4,44.1,29.76,WSW,257,9.0,9.0,82,0.00,,,0.01,5.00,VWS V14.01,2013-04-07 11:46:00,
2013-04-07 07:47:00,49.4,44.1,29.76,WSW,257,9.0,10.0,82,0.00,,,0.01,5.00,VWS V14.01,2013-04-07 11:47:00,
2013-04-07 07:48:00,49.4,44.1,29.76,West,266,8.0,15.0,82,0.00,,,0.01,7.00,VWS V14.01,2013-04-07 11:48:00,
2013-04-07 07:49:00,49.4,44.1,29.76,West,263,6.0,14.0,82,0.00,,,0.01,7.00,VWS V14.01,2013-04-07 11:49:00,
2013-04-07 07:50:00,49.3,44.0,29.76,West,269,13.0,14.0,82,0.00,,,0.01,7.00,VWS V14.01,2013-04-07 11:50:00,
2013-04-07 07:51:00,49.3,44.0,29.76,WSW,244,9.0,20.0,82,0.00,,,0.01,7.00,VWS V14.01,2013-04-07 11:51:00,
2013-04-07 07:52:00,49.3,44.0,29.76,West,273,8.0,12.0,82,0.00,,,0.01,9.00,VWS V14.01,2013-04-07 11:52:00,
2013-04-07 07:53:00,49.3,44.0,29.76,West,273,8.0,12.0,82,0.00,,,0.01,9.00,VWS V14.01,2013-04-07 11:53:00,
2013-04-07 07:54:00,49.3,44.0,29.76,WSW,253,9.0,11.0,82,0.00,,,0.01,9.00,VWS V14.01,2013-04-07 11:54:00,
2013-04-07 07:55:00,49.2,44.0,29.77,West,267,12.0,12.0,82,0.00,,,0.01,9.00,VWS V14.01,2013-04-07 11:55:00,
2013-04-07 07:56:00,49.2,44.0,29.77,WSW,245,10.0,14.0,82,0.00,,,0.01,9.00,VWS V14.01,2013-04-07 11:56:00,
2013-04-07 07:57:00,49.2,44.0,29.77,SW,235,10.0,13.0,82,0.00,,,0.01,11.00,VWS V14.01,2013-04-07 11:57:00,
2013-04-07 07:58:00,49.2,44.0,29.77,SW,235,10.0,13.0,82,0.00,,,0.01,11.00,VWS V14.01,2013-04-07 11:58:00,
2013-04-07 07:59:00,49.2,44.0,29.77,WSW,250,9.0,11.0,82,0.00,,,0.01,9.00,VWS V14.01,2013-04-07 11:59:00,
2013-04-07 08:00:00,49.2,44.0,29.77,WSW,248,8.0,13.0,82,0.00,,,0.01,9.00,VWS V14.01,2013-04-07 12:00:00,
2013-04-07 08:01:00,49.2,44.0,29.77,SW,217,10.0,12.0,82,0.00,,,0.01,9.00,VWS V14.01,2013-04-07 12:01:00,
2013-04-07 08:02:00,49.2,44.0,29.77,West,269,4.0,5.0,82,0.00,,,0.01,12.00,VWS V14.01,2013-04-07 12:02:00,
2013-04-07 08:03:00,49.2,44.0,29.77,WSW,245,5.0,13.0,82,0.00,,,0.01,11.00,VWS V14.01,2013-04-07 12:03:00,
2013-04-07 08:04:00,49.2,44.0,29.77,SW,229,4.0,7.0,82,0.00,,,0.01,12.00,VWS V14.01,2013-04-07 12:04:00,
2013-04-07 08:05:00,49.2,44.0,29.77,WSW,255,13.0,16.0,82,0.00,,,0.01,11.00,VWS V14.01,2013-04-07 12:05:00,
2013-04-07 08:06:00,49.2,44.0,29.77,SW,235,9.0,14.0,82,0.00,,,0.01,11.00,VWS V14.01,2013-04-07 12:06:00,
2013-04-07 08:07:00,49.2,44.0,29.77,WSW,254,13.0,13.0,82,0.00,,,0.01,11.00,VWS V14.01,2013-04-07 12:07:00,
2013-04-07 08:08:00,49.2,44.0,29.77,WSW,250,10.0,10.0,82,0.00,,,0.01,11.00,VWS V14.01,2013-04-07 12:08:00,
2013-04-07 08:09:00,49.2,44.0,29.77,West,266,6.0,13.0,82,0.00,,,0.01,11.00,VWS V14.01,2013-04-07 12:09:00,
2013-04-07 08:10:00,49.2,43.6,29.77,WSW,250,14.0,14.0,81,0.00,,,0.01,14.00,VWS V14.01,2013-04-07 12:10:00,
2013-04-07 08:11:00,49.1,43.8,29.77,SW,227,10.0,14.0,82,0.00,,,0.01,14.00,VWS V14.01,2013-04-07 12:11:00,
2013-04-07 08:12:00,49.2,43.6,29.78,WSW,241,9.0,12.0,81,0.00,,,0.01,14.00,VWS V14.01,2013-04-07 12:12:00,
2013-04-07 08:13:00,49.2,43.6,29.77,West,266,6.0,16.0,81,0.00,,,0.01,14.00,VWS V14.01,2013-04-07 12:13:00,
2013-04-07 08:14:00,49.1,43.5,29.78,WSW,238,5.0,12.0,81,0.00,,,0.01,16.00,VWS V14.01,2013-04-07 12:14:00,
2013-04-07 08:15:00,49.1,43.5,29.78,WSW,238,7.0,11.0,81,0.00,,,0.01,16.00,VWS V14.01,2013-04-07 12:15:00,
2013-04-07 08:16:00,49.1,43.5,29.78,WSW,248,9.0,12.0,81,0.00,,,0.01,19.00,VWS V14.01,2013-04-07 12:16:00,
2013-04-07 08:17:00,49.1,43.5,29.78,WSW,244,6.0,8.0,81,0.00,,,0.01,21.00,VWS V14.01,2013-04-07 12:17:00,
2013-04-07 08:18:00,49.1,43.5,29.78,SW,230,9.0,9.0,81,0.00,,,0.01,21.00,VWS V14.01,2013-04-07 12:18:00,
2013-04-07 08:19:00,49.1,43.5,29.78,WNW,286,4.0,8.0,81,0.00,,,0.01,23.00,VWS V14.01,2013-04-07 12:19:00,
2013-04-07 08:20:00,49.0,43.4,29.78,WSW,245,5.0,8.0,81,0.00,,,0.01,26.00,VWS V14.01,2013-04-07 12:20:00,
2013-04-07 08:21:00,49.0,43.4,29.78,WSW,244,4.0,10.0,81,0.00,,,0.01,28.00,VWS V14.01,2013-04-07 12:21:00,
2013-04-07 08:22:00,49.0,43.4,29.78,West,275,14.0,14.0,81,0.00,,,0.01,37.00,VWS V14.01,2013-04-07 12:22:00,
2013-04-07 08:23:00,49.0,43.4,29.78,North,360,7.0,10.0,81,0.00,,,0.01,37.00,VWS V14.01,2013-04-07 12:23:00,
2013-04-07 08:24:00,49.0,43.4,29.78,West,279,6.0,18.0,81,0.00,,,0.01,40.00,VWS V14.01,2013-04-07 12:24:00,
2013-04-07 08:25:00,49.0,43.4,29.78,WSW,252,10.0,10.0,81,0.00,,,0.01,44.00,VWS V14.01,2013-04-07 12:25:00,
2013-04-07 08:26:00,49.0,43.4,29.78,WSW,253,8.0,14.0,81,0.00,,,0.01,44.00,VWS V14.01,2013-04-07 12:26:00,
2013-04-07 08:27:00,49.0,43.4,29.78,SSW,212,5.0,7.0,81,0.00,,,0.01,39.00,VWS V14.01,2013-04-07 12:27:00,
2013-04-07 08:28:00,49.0,43.4,29.78,WSW,240,7.0,15.0,81,0.00,,,0.01,39.00,VWS V14.01,2013-04-07 12:28:00,
2013-04-07 08:29:00,49.0,43.4,29.78,WSW,252,13.0,13.0,81,0.00,,,0.01,33.00,VWS V14.01,2013-04-07 12:29:00,
2013-04-07 08:30:00,49.0,43.4,29.78,SW,223,8.0,13.0,81,0.00,,,0.01,33.00,VWS V14.01,2013-04-07 12:30:00,
2013-04-07 08:31:00,49.0,43.4,29.78,WSW,252,10.0,13.0,81,0.00,,,0.01,33.00,VWS V14.01,2013-04-07 12:31:00,
2013-04-07 08:32:00,49.0,43.4,29.78,WSW,257,8.0,11.0,81,0.00,,,0.01,35.00,VWS V14.01,2013-04-07 12:32:00,
2013-04-07 08:33:00,49.0,43.4,29.78,West,262,9.0,12.0,81,0.00,,,0.01,35.00,VWS V14.01,2013-04-07 12:33:00,
2013-04-07 08:34:00,49.0,43.4,29.78,SSW,213,7.0,11.0,81,0.00,,,0.01,35.00,VWS V14.01,2013-04-07 12:34:00,
2013-04-07 08:35:00,49.0,43.4,29.78,WSW,250,6.0,14.0,81,0.00,,,0.01,33.00,VWS V14.01,2013-04-07 12:35:00,
2013-04-07 08:36:00,49.0,43.4,29.79,SW,228,7.0,8.0,81,0.00,,,0.01,33.00,VWS V14.01,2013-04-07 12:36:00,
2013-04-07 08:37:00,49.0,43.4,29.79,WNW,292,6.0,7.0,81,0.00,,,0.01,37.00,VWS V14.01,2013-04-07 12:37:00,
2013-04-07 08:38:00,49.0,43.4,29.79,WSW,250,7.0,12.0,81,0.00,,,0.01,37.00,VWS V14.01,2013-04-07 12:38:00,
2013-04-07 08:39:00,49.0,43.1,29.79,SW,236,8.0,13.0,80,0.00,,,0.01,40.00,VWS V14.01,2013-04-07 12:39:00,
2013-04-07 08:40:00,49.1,43.2,29.79,West,269,6.0,8.0,80,0.00,,,0.01,40.00,VWS V14.01,2013-04-07 12:40:00,
2013-04-07 08:41:00,49.0,43.1,29.79,WSW,242,4.0,11.0,80,0.00,,,0.01,39.00,VWS V14.01,2013-04-07 12:41:00,
2013-04-07 08:42:00,49.1,43.2,29.79,West,266,7.0,10.0,80,0.00,,,0.01,39.00,VWS V14.01,2013-04-07 12:42:00,
2013-04-07 08:43:00,49.1,43.2,29.79,West,271,10.0,10.0,80,0.00,,,0.01,39.00,VWS V14.01,2013-04-07 12:43:00,
2013-04-07 08:44:00,49.0,43.1,29.79,WSW,239,5.0,10.0,80,0.00,,,0.01,39.00,VWS V14.01,2013-04-07 12:44:00,
2013-04-07 08:45:00,49.0,43.1,29.79,WSW,247,10.0,10.0,80,0.00,,,0.01,39.00,VWS V14.01,2013-04-07 12:45:00,
2013-04-07 08:46:00,49.0,43.1,29.79,WSW,257,8.0,12.0,80,0.00,,,0.01,44.00,VWS V14.01,2013-04-07 12:46:00,
2013-04-07 08:47:00,49.0,43.4,29.79,WSW,257,8.0,15.0,81,0.00,,,0.01,46.00,VWS V14.01,2013-04-07 12:47:00,
2013-04-07 08:48:00,49.0,43.4,29.79,WSW,257,8.0,15.0,81,0.00,,,0.01,46.00,VWS V14.01,2013-04-07 12:48:00,
2013-04-07 08:49:00,49.0,43.4,29.79,SW,223,6.0,13.0,81,0.00,,,0.01,46.00,VWS V14.01,2013-04-07 12:49:00,
2013-04-07 08:50:00,49.0,43.4,29.80,SW,236,10.0,14.0,81,0.00,,,0.01,47.00,VWS V14.01,2013-04-07 12:50:00,
2013-04-07 08:51:00,49.0,43.4,29.80,WSW,255,6.0,15.0,81,0.00,,,0.01,51.00,VWS V14.01,2013-04-07 12:51:00,
2013-04-07 08:52:00,49.0,43.4,29.80,WSW,250,9.0,9.0,81,0.00,,,0.01,47.00,VWS V14.01,2013-04-07 12:52:00,
2013-04-07 08:53:00,49.0,43.4,29.80,West,261,7.0,10.0,81,0.00,,,0.01,47.00,VWS V14.01,2013-04-07 12:53:00,
2013-04-07 08:54:00,48.9,43.3,29.80,SW,224,7.0,13.0,81,0.00,,,0.01,47.00,VWS V14.01,2013-04-07 12:54:00,
2013-04-07 08:55:00,48.9,43.3,29.80,West,259,10.0,20.0,81,0.00,,,0.01,47.00,VWS V14.01,2013-04-07 12:55:00,
2013-04-07 08:56:00,48.9,43.3,29.80,SW,223,8.0,16.0,81,0.00,,,0.01,47.00,VWS V14.01,2013-04-07 12:56:00,
2013-04-07 08:57:00,48.9,43.0,29.80,SW,221,7.0,7.0,80,0.00,,,0.01,39.00,VWS V14.01,2013-04-07 12:57:00,
2013-04-07 08:58:00,48.9,43.0,29.80,SSE,163,5.0,9.0,80,0.00,,,0.01,39.00,VWS V14.01,2013-04-07 12:58:00,
2013-04-07 08:59:00,48.9,43.3,29.80,WSW,238,9.0,17.0,81,0.00,,,0.01,37.00,VWS V14.01,2013-04-07 12:59:00,
2013-04-07 09:00:00,48.9,43.0,29.80,SW,223,7.0,16.0,80,0.00,,,0.01,37.00,VWS V14.01,2013-04-07 13:00:00,
2013-04-07 09:01:00,48.9,43.0,29.80,WSW,252,7.0,12.0,80,0.00,,,0.01,35.00,VWS V14.01,2013-04-07 13:01:00,
2013-04-07 09:02:00,48.9,43.0,29.80,SW,236,6.0,6.0,80,0.00,,,0.01,33.00,VWS V14.01,2013-04-07 13:02:00,
2013-04-07 09:03:00,48.9,43.0,29.80,SW,236,6.0,12.0,80,0.00,,,0.01,33.00,VWS V14.01,2013-04-07 13:03:00,
2013-04-07 09:04:00,48.9,43.0,29.80,SW,236,6.0,6.0,80,0.00,,,0.01,33.00,VWS V14.01,2013-04-07 13:04:00,
2013-04-07 09:05:00,48.9,43.0,29.80,SW,236,6.0,6.0,80,0.00,,,0.01,33.00,VWS V14.01,2013-04-07 13:05:00,
2013-04-07 09:06:00,48.9,43.0,29.80,SW,236,6.0,6.0,80,0.00,,,0.01,33.00,VWS V14.01,2013-04-07 13:06:00,
2013-04-07 09:07:00,48.8,42.9,29.80,WSW,248,11.0,16.0,80,0.00,,,0.01,32.00,VWS V14.01,2013-04-07 13:07:00,
2013-04-07 09:08:00,48.8,42.9,29.80,SW,231,16.0,16.0,80,0.00,,,0.01,30.00,VWS V14.01,2013-04-07 13:08:00,
2013-04-07 09:09:00,48.8,42.6,29.80,SW,225,9.0,17.0,79,0.00,,,0.01,33.00,VWS V14.01,2013-04-07 13:09:00,
2013-04-07 09:10:00,48.8,42.6,29.80,WSW,250,12.0,18.0,79,0.00,,,0.01,37.00,VWS V14.01,2013-04-07 13:10:00,
2013-04-07 09:11:00,48.8,42.6,29.80,WNW,291,9.0,20.0,79,0.00,,,0.01,35.00,VWS V14.01,2013-04-07 13:11:00,
2013-04-07 09:12:00,48.8,42.6,29.81,West,263,9.0,13.0,79,0.00,,,0.01,39.00,VWS V14.01,2013-04-07 13:12:00,
2013-04-07 09:13:00,48.8,42.6,29.81,West,263,9.0,13.0,79,0.00,,,0.01,39.00,VWS V14.01,2013-04-07 13:13:00,
2013-04-07 09:14:00,48.8,42.6,29.81,WSW,254,8.0,9.0,79,0.00,,,0.01,35.00,VWS V14.01,2013-04-07 13:14:00,
2013-04-07 09:15:00,48.7,42.5,29.81,WNW,295,11.0,16.0,79,0.00,,,0.01,26.00,VWS V14.01,2013-04-07 13:15:00,
2013-04-07 09:16:00,48.6,42.4,29.81,West,277,10.0,12.0,79,0.00,,,0.01,25.00,VWS V14.01,2013-04-07 13:16:00,
2013-04-07 09:17:00,48.3,42.1,29.81,West,267,5.0,5.0,79,0.00,,,0.01,23.00,VWS V14.01,2013-04-07 13:17:00,
2013-04-07 09:18:00,48.3,42.1,29.81,West,267,4.0,12.0,79,0.00,,,0.01,23.00,VWS V14.01,2013-04-07 13:18:00,
2013-04-07 09:19:00,48.2,42.0,29.81,West,278,7.0,7.0,79,0.00,,,0.01,21.00,VWS V14.01,2013-04-07 13:19:00,
2013-04-07 09:20:00,47.9,41.7,29.81,WNW,291,9.0,15.0,79,0.00,,,0.01,21.00,VWS V14.01,2013-04-07 13:20:00,
2013-04-07 09:21:00,47.8,41.9,29.81,West,273,13.0,19.0,80,0.00,,,0.01,23.00,VWS V14.01,2013-04-07 13:21:00,
2013-04-07 09:22:00,47.5,41.7,29.81,West,267,7.0,7.0,80,0.00,,,0.01,28.00,VWS V14.01,2013-04-07 13:22:00,
2013-04-07 09:23:00,47.5,41.7,29.81,West,267,6.0,10.0,80,0.00,,,0.01,28.00,VWS V14.01,2013-04-07 13:23:00,
2013-04-07 09:24:00,47.4,41.5,29.81,WNW,286,9.0,13.0,80,0.00,,,0.01,37.00,VWS V14.01,2013-04-07 13:24:00,
2013-04-07 09:25:00,47.3,41.5,29.81,West,279,6.0,11.0,80,0.00,,,0.01,47.00,VWS V14.01,2013-04-07 13:25:00,
2013-04-07 09:26:00,47.2,41.3,29.81,West,270,11.0,11.0,80,0.00,,,0.01,42.00,VWS V14.01,2013-04-07 13:26:00,
2013-04-07 09:27:00,46.9,41.1,29.81,West,273,6.0,7.0,80,0.00,,,0.01,56.00,VWS V14.01,2013-04-07 13:27:00,
2013-04-07 09:28:00,47.0,41.2,29.82,WNW,294,5.0,12.0,80,0.00,,,0.01,56.00,VWS V14.01,2013-04-07 13:28:00,
2013-04-07 09:29:00,46.9,41.1,29.81,West,273,7.0,14.0,80,0.00,,,0.01,58.00,VWS V14.01,2013-04-07 13:29:00,
2013-04-07 09:30:00,46.8,41.3,29.81,West,266,8.0,10.0,81,0.00,,,0.01,65.00,VWS V14.01,2013-04-07 13:30:00,
2013-04-07 09:31:00,46.7,41.2,29.82,WNW,284,10.0,12.0,81,0.00,,,0.01,67.00,VWS V14.01,2013-04-07 13:31:00,
2013-04-07 09:32:00,46.6,41.1,29.81,WNW,289,4.0,5.0,81,0.00,,,0.01,56.00,VWS V14.01,2013-04-07 13:32:00,
2013-04-07 09:33:00,46.6,41.1,29.82,WSW,251,5.0,7.0,81,0.00,,,0.01,56.00,VWS V14.01,2013-04-07 13:33:00,
2013-04-07 09:34:00,46.6,41.1,29.81,WNW,289,5.0,8.0,81,0.00,,,0.01,60.00,VWS V14.01,2013-04-07 13:34:00,
2013-04-07 09:35:00,46.5,41.0,29.82,WNW,296,4.0,11.0,81,0.00,,,0.01,58.00,VWS V14.01,2013-04-07 13:35:00,
2013-04-07 09:36:00,46.5,41.0,29.82,WSW,257,11.0,11.0,81,0.00,,,0.01,60.00,VWS V14.01,2013-04-07 13:36:00,
2013-04-07 09:37:00,46.5,41.0,29.82,West,266,8.0,10.0,81,0.00,,,0.01,79.00,VWS V14.01,2013-04-07 13:37:00,
2013-04-07 09:38:00,46.5,41.0,29.82,West,269,9.0,13.0,81,0.00,,,0.01,79.00,VWS V14.01,2013-04-07 13:38:00,
2013-04-07 09:39:00,46.4,40.9,29.82,WNW,283,8.0,10.0,81,0.00,,,0.01,88.00,VWS V14.01,2013-04-07 13:39:00,
2013-04-07 09:40:00,46.4,40.9,29.82,WNW,282,8.0,11.0,81,0.00,,,0.01,91.00,VWS V14.01,2013-04-07 13:40:00,
2013-04-07 09:41:00,46.4,40.9,29.82,NW,304,6.0,9.0,81,0.00,,,0.01,81.00,VWS V14.01,2013-04-07 13:41:00,
2013-04-07 09:42:00,46.3,40.5,29.82,WNW,300,7.0,8.0,80,0.00,,,0.01,65.00,VWS V14.01,2013-04-07 13:42:00,
2013-04-07 09:43:00,46.3,40.5,29.82,SW,227,8.0,13.0,80,0.00,,,0.01,70.00,VWS V14.01,2013-04-07 13:43:00,
2013-04-07 09:44:00,46.3,40.5,29.82,WNW,290,7.0,11.0,80,0.00,,,0.01,62.00,VWS V14.01,2013-04-07 13:44:00,
2013-04-07 09:45:00,46.3,40.5,29.82,West,269,9.0,9.0,80,0.00,,,0.01,63.00,VWS V14.01,2013-04-07 13:45:00,
2013-04-07 09:46:00,46.3,40.5,29.82,West,264,5.0,9.0,80,0.00,,,0.01,63.00,VWS V14.01,2013-04-07 13:46:00,
2013-04-07 09:47:00,46.3,40.5,29.82,West,274,7.0,7.0,80,0.00,,,0.01,69.00,VWS V14.01,2013-04-07 13:47:00,
2013-04-07 09:48:00,46.3,40.5,29.82,West,275,7.0,11.0,80,0.00,,,0.01,69.00,VWS V14.01,2013-04-07 13:48:00,
2013-04-07 09:49:00,46.2,40.4,29.82,West,266,12.0,13.0,80,0.00,,,0.01,67.00,VWS V14.01,2013-04-07 13:49:00,
2013-04-07 09:50:00,46.2,40.4,29.82,West,268,5.0,12.0,80,0.00,,,0.01,81.00,VWS V14.01,2013-04-07 13:50:00,
2013-04-07 09:51:00,46.2,40.4,29.82,WNW,292,4.0,6.0,80,0.00,,,0.01,77.00,VWS V14.01,2013-04-07 13:51:00,
2013-04-07 09:52:00,46.1,40.3,29.82,NW,319,8.0,8.0,80,0.00,,,0.01,72.00,VWS V14.01,2013-04-07 13:52:00,
2013-04-07 09:53:00,46.1,40.3,29.82,WNW,285,7.0,12.0,80,0.00,,,0.01,72.00,VWS V14.01,2013-04-07 13:53:00,
2013-04-07 09:54:00,46.1,40.3,29.82,West,279,9.0,12.0,80,0.00,,,0.01,74.00,VWS V14.01,2013-04-07 13:54:00,
2013-04-07 09:55:00,46.1,40.3,29.82,NW,305,9.0,11.0,80,0.00,,,0.01,81.00,VWS V14.01,2013-04-07 13:55:00,
2013-04-07 09:56:00,46.1,40.3,29.83,WNW,294,7.0,11.0,80,0.00,,,0.01,79.00,VWS V14.01,2013-04-07 13:56:00,
2013-04-07 09:57:00,46.0,40.2,29.83,WNW,299,7.0,7.0,80,0.00,,,0.01,69.00,VWS V14.01,2013-04-07 13:57:00,
2013-04-07 09:58:00,46.1,40.3,29.83,West,265,4.0,8.0,80,0.00,,,0.01,69.00,VWS V14.01,2013-04-07 13:58:00,
2013-04-07 09:59:00,46.1,40.6,29.83,WNW,288,7.0,8.0,81,0.00,,,0.01,63.00,VWS V14.01,2013-04-07 13:59:00,
2013-04-07 10:00:00,46.1,40.3,29.83,West,281,8.0,11.0,80,0.00,,,0.01,67.00,VWS V14.01,2013-04-07 14:00:00,
2013-04-07 10:01:00,46.1,40.3,29.83,WSW,248,8.0,10.0,80,0.00,,,0.01,76.00,VWS V14.01,2013-04-07 14:01:00,
2013-04-07 10:02:00,46.1,40.3,29.83,West,267,10.0,10.0,80,0.00,,,0.01,84.00,VWS V14.01,2013-04-07 14:02:00,
2013-04-07 10:03:00,46.1,40.3,29.83,WNW,286,7.0,10.0,80,0.00,,,0.01,84.00,VWS V14.01,2013-04-07 14:03:00,
2013-04-07 10:04:00,46.1,40.3,29.83,West,270,8.0,12.0,80,0.00,,,0.01,76.00,VWS V14.01,2013-04-07 14:04:00,
2013-04-07 10:05:00,46.1,40.3,29.83,NW,304,6.0,12.0,80,0.00,,,0.01,77.00,VWS V14.01,2013-04-07 14:05:00,
2013-04-07 10:06:00,46.1,40.3,29.83,West,259,7.0,11.0,80,0.00,,,0.01,77.00,VWS V14.01,2013-04-07 14:06:00,
2013-04-07 10:07:00,46.1,40.3,29.83,WSW,254,8.0,10.0,80,0.00,,,0.01,93.00,VWS V14.01,2013-04-07 14:07:00,
2013-04-07 10:08:00,46.1,40.3,29.83,West,268,6.0,12.0,80,0.00,,,0.01,93.00,VWS V14.01,2013-04-07 14:08:00,
2013-04-07 10:09:00,46.1,40.3,29.83,West,271,6.0,12.0,80,0.00,,,0.01,97.00,VWS V14.01,2013-04-07 14:09:00,
2013-04-07 10:10:00,46.1,40.3,29.83,West,279,4.0,12.0,80,0.00,,,0.01,86.00,VWS V14.01,2013-04-07 14:10:00,
2013-04-07 10:11:00,46.1,40.3,29.83,West,263,11.0,17.0,80,0.00,,,0.01,86.00,VWS V14.01,2013-04-07 14:11:00,
2013-04-07 10:12:00,46.1,40.3,29.83,West,269,12.0,13.0,80,0.00,,,0.01,70.00,VWS V14.01,2013-04-07 14:12:00,
2013-04-07 10:13:00,46.1,40.3,29.83,West,264,13.0,13.0,80,0.00,,,0.01,70.00,VWS V14.01,2013-04-07 14:13:00,
2013-04-07 10:14:00,46.1,40.0,29.83,West,263,13.0,13.0,79,0.00,,,0.01,77.00,VWS V14.01,2013-04-07 14:14:00,
2013-04-07 10:15:00,46.0,39.9,29.83,WSW,243,11.0,15.0,79,0.00,,,0.01,83.00,VWS V14.01,2013-04-07 14:15:00,
2013-04-07 10:16:00,46.0,39.9,29.84,WSW,244,11.0,15.0,79,0.00,,,0.01,72.00,VWS V14.01,2013-04-07 14:16:00,
2013-04-07 10:17:00,45.9,39.8,29.84,WSW,254,8.0,8.0,79,0.00,,,0.01,72.00,VWS V14.01,2013-04-07 14:17:00,
2013-04-07 10:18:00,45.9,39.8,29.84,WSW,250,7.0,14.0,79,0.00,,,0.01,76.00,VWS V14.01,2013-04-07 14:18:00,
2013-04-07 10:19:00,45.9,39.8,29.84,West,273,7.0,12.0,79,0.00,,,0.01,70.00,VWS V14.01,2013-04-07 14:19:00,
2013-04-07 10:20:00,45.9,39.8,29.84,WNW,284,8.0,15.0,79,0.00,,,0.01,74.00,VWS V14.01,2013-04-07 14:20:00,
2013-04-07 10:21:00,45.9,39.8,29.84,WSW,253,10.0,17.0,79,0.00,,,0.01,81.00,VWS V14.01,2013-04-07 14:21:00,
2013-04-07 10:22:00,45.8,40.0,29.84,WSW,248,7.0,9.0,80,0.00,,,0.01,97.00,VWS V14.01,2013-04-07 14:22:00,
2013-04-07 10:23:00,45.9,40.1,29.84,West,269,9.0,10.0,80,0.00,,,0.01,97.00,VWS V14.01,2013-04-07 14:23:00,
2013-04-07 10:24:00,45.9,40.1,29.84,WSW,257,11.0,14.0,80,0.00,,,0.01,105.00,VWS V14.01,2013-04-07 14:24:00,
2013-04-07 10:25:00,45.8,39.7,29.84,West,275,7.0,19.0,79,0.00,,,0.01,93.00,VWS V14.01,2013-04-07 14:25:00,
2013-04-07 10:26:00,45.8,39.7,29.84,West,265,9.0,14.0,79,0.00,,,0.01,93.00,VWS V14.01,2013-04-07 14:26:00,
2013-04-07 10:27:00,45.8,39.7,29.84,WNW,296,13.0,15.0,79,0.00,,,0.01,109.00,VWS V14.01,2013-04-07 14:27:00,
2013-04-07 10:28:00,45.8,39.7,29.84,WNW,296,13.0,15.0,79,0.00,,,0.01,109.00,VWS V14.01,2013-04-07 14:28:00,
2013-04-07 10:29:00,45.8,39.7,29.84,West,275,9.0,13.0,79,0.00,,,0.01,121.00,VWS V14.01,2013-04-07 14:29:00,
2013-04-07 10:30:00,45.8,40.0,29.84,West,269,8.0,13.0,80,0.00,,,0.01,128.00,VWS V14.01,2013-04-07 14:30:00,
2013-04-07 10:31:00,45.8,39.7,29.84,West,262,10.0,18.0,79,0.00,,,0.01,107.00,VWS V14.01,2013-04-07 14:31:00,
2013-04-07 10:32:00,45.8,39.7,29.84,WNW,286,15.0,18.0,79,0.00,,,0.01,105.00,VWS V14.01,2013-04-07 14:32:00,
2013-04-07 10:33:00,45.8,39.7,29.84,West,273,18.0,18.0,79,0.00,,,0.01,105.00,VWS V14.01,2013-04-07 14:33:00,
2013-04-07 10:34:00,45.8,39.7,29.84,SW,223,7.0,18.0,79,0.00,,,0.01,113.00,VWS V14.01,2013-04-07 14:34:00,
2013-04-07 10:35:00,45.8,39.7,29.84,WNW,286,7.0,13.0,79,0.00,,,0.01,116.00,VWS V14.01,2013-04-07 14:35:00,
2013-04-07 10:36:00,45.8,39.7,29.84,West,279,9.0,11.0,79,0.00,,,0.01,125.00,VWS V14.01,2013-04-07 14:36:00,
2013-04-07 10:37:00,45.8,40.0,29.84,WSW,256,7.0,9.0,80,0.00,,,0.01,202.00,VWS V14.01,2013-04-07 14:37:00,
2013-04-07 10:38:00,45.8,40.0,29.84,West,261,9.0,14.0,80,0.00,,,0.01,202.00,VWS V14.01,2013-04-07 14:38:00,
2013-04-07 10:39:00,45.8,39.7,29.84,West,273,7.0,9.0,79,0.00,,,0.01,202.00,VWS V14.01,2013-04-07 14:39:00,
2013-04-07 10:40:00,45.9,40.1,29.84,West,279,8.0,8.0,80,0.00,,,0.01,169.00,VWS V14.01,2013-04-07 14:40:00,
2013-04-07 10:41:00,45.9,40.1,29.84,West,267,6.0,8.0,80,0.00,,,0.01,151.00,VWS V14.01,2013-04-07 14:41:00,
2013-04-07 10:42:00,46.0,39.9,29.85,West,281,5.0,13.0,79,0.00,,,0.01,146.00,VWS V14.01,2013-04-07 14:42:00,
2013-04-07 10:43:00,46.0,39.9,29.85,WNW,288,6.0,12.0,79,0.00,,,0.01,113.00,VWS V14.01,2013-04-07 14:43:00,
2013-04-07 10:44:00,46.0,39.9,29.85,West,264,13.0,13.0,79,0.00,,,0.01,125.00,VWS V14.01,2013-04-07 14:44:00,
2013-04-07 10:45:00,46.0,39.9,29.85,WSW,252,8.0,15.0,79,0.00,,,0.01,139.00,VWS V14.01,2013-04-07 14:45:00,
2013-04-07 10:46:00,46.0,39.9,29.85,West,262,11.0,12.0,79,0.00,,,0.01,149.00,VWS V14.01,2013-04-07 14:46:00,
2013-04-07 10:47:00,46.0,39.9,29.85,West,270,9.0,13.0,79,0.00,,,0.01,144.00,VWS V14.01,2013-04-07 14:47:00,
2013-04-07 10:48:00,45.9,39.8,29.85,WSW,257,12.0,14.0,79,0.00,,,0.01,142.00,VWS V14.01,2013-04-07 14:48:00,
2013-04-07 10:49:00,45.9,39.8,29.85,WNW,291,8.0,18.0,79,0.00,,,0.01,188.00,VWS V14.01,2013-04-07 14:49:00,
2013-04-07 10:50:00,45.9,39.8,29.85,WSW,246,8.0,15.0,79,0.00,,,0.01,197.00,VWS V14.01,2013-04-07 14:50:00,
2013-04-07 10:51:00,45.9,39.8,29.85,West,265,10.0,14.0,79,0.00,,,0.01,197.00,VWS V14.01,2013-04-07 14:51:00,
2013-04-07 10:52:00,45.9,39.8,29.85,West,281,12.0,19.0,79,0.00,,,0.01,213.00,VWS V14.01,2013-04-07 14:52:00,
2013-04-07 10:53:00,45.9,39.8,29.85,WSW,241,11.0,15.0,79,0.00,,,0.01,241.00,VWS V14.01,2013-04-07 14:53:00,
2013-04-07 10:54:00,45.9,39.8,29.85,West,277,12.0,15.0,79,0.00,,,0.01,229.00,VWS V14.01,2013-04-07 14:54:00,
2013-04-07 10:55:00,45.9,39.8,29.85,WSW,254,10.0,13.0,79,0.00,,,0.01,225.00,VWS V14.01,2013-04-07 14:55:00,
2013-04-07 10:56:00,45.9,39.8,29.85,West,269,11.0,12.0,79,0.00,,,0.01,234.00,VWS V14.01,2013-04-07 14:56:00,
2013-04-07 10:57:00,46.0,39.9,29.85,WNW,295,9.0,15.0,79,0.00,,,0.01,213.00,VWS V14.01,2013-04-07 14:57:00,
2013-04-07 10:58:00,46.0,39.9,29.85,WSW,254,12.0,12.0,79,0.00,,,0.01,163.00,VWS V14.01,2013-04-07 14:58:00,
2013-04-07 10:59:00,46.0,39.5,29.85,WSW,257,10.0,13.0,78,0.00,,,0.01,163.00,VWS V14.01,2013-04-07 14:59:00,
2013-04-07 11:00:00,46.0,39.9,29.85,WSW,243,10.0,16.0,79,0.00,,,0.01,225.00,VWS V14.01,2013-04-07 15:00:00,
2013-04-07 11:01:00,46.0,39.9,29.85,West,269,6.0,12.0,79,0.00,,,0.01,197.00,VWS V14.01,2013-04-07 15:01:00,
2013-04-07 11:02:00,46.0,39.9,29.85,WSW,257,11.0,13.0,79,0.00,,,0.01,181.00,VWS V14.01,2013-04-07 15:02:00,
2013-04-07 11:03:00,46.1,40.0,29.85,WNW,289,7.0,9.0,79,0.00,,,0.01,206.00,VWS V14.01,2013-04-07 15:03:00,
2013-04-07 11:04:00,46.1,40.0,29.85,West,275,5.0,9.0,79,0.00,,,0.01,206.00,VWS V14.01,2013-04-07 15:04:00,
2013-04-07 11:05:00,46.2,40.1,29.85,WNW,303,6.0,10.0,79,0.00,,,0.01,248.00,VWS V14.01,2013-04-07 15:05:00,
2013-04-07 11:06:00,46.2,40.1,29.85,SW,228,11.0,11.0,79,0.00,,,0.01,269.00,VWS V14.01,2013-04-07 15:06:00,
2013-04-07 11:07:00,46.3,39.8,29.85,West,264,6.0,12.0,78,0.00,,,0.01,294.00,VWS V14.01,2013-04-07 15:07:00,
2013-04-07 11:08:00,46.4,40.2,29.85,WSW,256,8.0,10.0,79,0.00,,,0.01,299.00,VWS V14.01,2013-04-07 15:08:00,
2013-04-07 11:09:00,46.4,40.2,29.85,West,261,7.0,15.0,79,0.00,,,0.01,299.00,VWS V14.01,2013-04-07 15:09:00,
2013-04-07 11:10:00,46.4,39.9,29.85,WSW,257,5.0,13.0,78,0.00,,,0.01,350.00,VWS V14.01,2013-04-07 15:10:00,
2013-04-07 11:11:00,46.5,40.3,29.85,WNW,299,5.0,7.0,79,0.00,,,0.01,302.00,VWS V14.01,2013-04-07 15:11:00,
2013-04-07 11:12:00,46.7,40.5,29.85,NW,308,3.0,8.0,79,0.00,,,0.01,274.00,VWS V14.01,2013-04-07 15:12:00,
2013-04-07 11:13:00,46.8,40.3,29.86,WNW,291,11.0,13.0,78,0.00,,,0.01,322.00,VWS V14.01,2013-04-07 15:13:00,
2013-04-07 11:14:00,46.8,40.3,29.86,West,281,11.0,13.0,78,0.00,,,0.01,322.00,VWS V14.01,2013-04-07 15:14:00,
2013-04-07 11:15:00,46.9,40.4,29.85,West,275,13.0,14.0,78,0.00,,,0.01,322.00,VWS V14.01,2013-04-07 15:15:00,
2013-04-07 11:16:00,46.9,40.4,29.86,West,265,5.0,16.0,78,0.00,,,0.01,322.00,VWS V14.01,2013-04-07 15:16:00,
2013-04-07 11:17:00,46.9,40.1,29.86,West,268,13.0,16.0,77,0.00,,,0.01,302.00,VWS V14.01,2013-04-07 15:17:00,
2013-04-07 11:18:00,46.8,40.0,29.86,WSW,248,4.0,8.0,77,0.00,,,0.01,332.00,VWS V14.01,2013-04-07 15:18:00,
2013-04-07 11:19:00,46.9,40.1,29.86,WSW,240,10.0,14.0,77,0.00,,,0.01,287.00,VWS V14.01,2013-04-07 15:19:00,
2013-04-07 11:20:00,46.9,40.1,29.86,West,271,6.0,13.0,77,0.00,,,0.01,271.00,VWS V14.01,2013-04-07 15:20:00,
2013-04-07 11:21:00,46.9,40.4,29.86,WNW,297,8.0,10.0,78,0.00,,,0.01,241.00,VWS V14.01,2013-04-07 15:21:00,
2013-04-07 11:22:00,47.0,40.2,29.86,West,281,4.0,14.0,77,0.00,,,0.01,260.00,VWS V14.01,2013-04-07 15:22:00,
2013-04-07 11:23:00,47.0,40.2,29.86,West,263,9.0,11.0,77,0.00,,,0.01,341.00,VWS V14.01,2013-04-07 15:23:00,
2013-04-07 11:24:00,47.0,40.2,29.86,West,268,13.0,13.0,77,0.00,,,0.01,359.00,VWS V14.01,2013-04-07 15:24:00,
2013-04-07 11:25:00,47.0,40.2,29.86,West,273,6.0,13.0,77,0.00,,,0.01,301.00,VWS V14.01,2013-04-07 15:25:00,
2013-04-07 11:26:00,47.0,40.2,29.86,WNW,290,10.0,15.0,77,0.00,,,0.01,297.00,VWS V14.01,2013-04-07 15:26:00,
2013-04-07 11:27:00,47.0,40.2,29.86,West,266,10.0,14.0,77,0.00,,,0.01,276.00,VWS V14.01,2013-04-07 15:27:00,
2013-04-07 11:28:00,47.1,40.3,29.86,West,261,7.0,12.0,77,0.00,,,0.01,253.00,VWS V14.01,2013-04-07 15:28:00,
2013-04-07 11:29:00,47.0,40.2,29.86,West,275,9.0,12.0,77,0.00,,,0.01,253.00,VWS V14.01,2013-04-07 15:29:00,
2013-04-07 11:30:00,47.0,40.2,29.86,West,276,6.0,11.0,77,0.00,,,0.01,258.00,VWS V14.01,2013-04-07 15:30:00,
2013-04-07 11:31:00,47.0,39.8,29.86,West,274,13.0,14.0,76,0.00,,,0.01,294.00,VWS V14.01,2013-04-07 15:31:00,
2013-04-07 11:32:00,47.0,39.8,29.86,West,266,6.0,14.0,76,0.00,,,0.01,338.00,VWS V14.01,2013-04-07 15:32:00,
2013-04-07 11:33:00,47.0,40.2,29.86,WSW,243,9.0,13.0,77,0.00,,,0.01,258.00,VWS V14.01,2013-04-07 15:33:00,
2013-04-07 11:34:00,47.0,40.2,29.86,West,264,6.0,13.0,77,0.00,,,0.01,258.00,VWS V14.01,2013-04-07 15:34:00,
2013-04-07 11:35:00,47.1,40.3,29.87,West,269,8.0,11.0,77,0.00,,,0.01,287.00,VWS V14.01,2013-04-07 15:35:00,
2013-04-07 11:36:00,47.2,40.4,29.87,West,273,7.0,10.0,77,0.00,,,0.01,253.00,VWS V14.01,2013-04-07 15:36:00,
2013-04-07 11:37:00,47.2,40.4,29.87,West,270,10.0,15.0,77,0.00,,,0.01,225.00,VWS V14.01,2013-04-07 15:37:00,
2013-04-07 11:38:00,47.2,40.0,29.87,West,281,6.0,9.0,76,0.00,,,0.01,211.00,VWS V14.01,2013-04-07 15:38:00,
2013-04-07 11:39:00,47.2,40.0,29.87,WNW,286,13.0,13.0,76,0.00,,,0.01,211.00,VWS V14.01,2013-04-07 15:39:00,
2013-04-07 11:40:00,47.2,40.0,29.87,West,273,11.0,14.0,76,0.00,,,0.01,195.00,VWS V14.01,2013-04-07 15:40:00,
2013-04-07 11:41:00,47.1,39.9,29.87,WSW,251,13.0,13.0,76,0.00,,,0.01,197.00,VWS V14.01,2013-04-07 15:41:00,
2013-04-07 11:42:00,47.1,39.6,29.87,West,261,8.0,15.0,75,0.00,,,0.01,223.00,VWS V14.01,2013-04-07 15:42:00,
2013-04-07 11:43:00,47.1,39.9,29.87,WNW,295,9.0,11.0,76,0.00,,,0.01,239.00,VWS V14.01,2013-04-07 15:43:00,
2013-04-07 11:44:00,47.1,39.9,29.87,WSW,239,10.0,12.0,76,0.00,,,0.01,239.00,VWS V14.01,2013-04-07 15:44:00,
2013-04-07 11:45:00,47.1,39.9,29.88,West,262,6.0,10.0,76,0.00,,,0.01,232.00,VWS V14.01,2013-04-07 15:45:00,
2013-04-07 11:46:00,47.1,39.9,29.88,WNW,286,14.0,14.0,76,0.00,,,0.01,227.00,VWS V14.01,2013-04-07 15:46:00,
2013-04-07 11:47:00,47.0,39.5,29.88,West,267,11.0,17.0,75,0.00,,,0.01,241.00,VWS V14.01,2013-04-07 15:47:00,
2013-04-07 11:48:00,47.0,39.5,29.88,WNW,284,8.0,8.0,75,0.00,,,0.01,262.00,VWS V14.01,2013-04-07 15:48:00,
2013-04-07 11:49:00,47.0,39.5,29.88,WSW,250,9.0,12.0,75,0.00,,,0.01,269.00,VWS V14.01,2013-04-07 15:49:00,
2013-04-07 11:50:00,47.0,39.8,29.88,West,271,7.0,11.0,76,0.00,,,0.01,250.00,VWS V14.01,2013-04-07 15:50:00,
2013-04-07 11:51:00,47.0,39.8,29.88,WNW,290,10.0,14.0,76,0.00,,,0.01,251.00,VWS V14.01,2013-04-07 15:51:00,
2013-04-07 11:52:00,47.1,39.6,29.88,SW,217,9.0,11.0,75,0.00,,,0.01,255.00,VWS V14.01,2013-04-07 15:52:00,
2013-04-07 11:53:00,47.2,39.7,29.88,WSW,252,11.0,11.0,75,0.00,,,0.01,257.00,VWS V14.01,2013-04-07 15:53:00,
2013-04-07 11:54:00,47.2,39.7,29.88,West,261,11.0,13.0,75,0.00,,,0.01,278.00,VWS V14.01,2013-04-07 15:54:00,
2013-04-07 11:55:00,47.3,39.8,29.88,West,263,14.0,14.0,75,0.00,,,0.01,265.00,VWS V14.01,2013-04-07 15:55:00,
2013-04-07 11:56:00,47.2,39.3,29.88,WSW,252,5.0,14.0,74,0.00,,,0.01,248.00,VWS V14.01,2013-04-07 15:56:00,
2013-04-07 11:57:00,47.3,39.8,29.88,West,275,4.0,6.0,75,0.00,,,0.01,251.00,VWS V14.01,2013-04-07 15:57:00,
2013-04-07 11:58:00,47.4,39.9,29.88,WNW,284,5.0,9.0,75,0.00,,,0.01,225.00,VWS V14.01,2013-04-07 15:58:00,
2013-04-07 11:59:00,47.4,39.9,29.88,West,269,6.0,11.0,75,0.00,,,0.01,232.00,VWS V14.01,2013-04-07 15:59:00,
2013-04-07 12:00:00,47.5,40.0,29.88,West,278,13.0,17.0,75,0.00,,,0.01,229.00,VWS V14.01,2013-04-07 16:00:00,
2013-04-07 12:01:00,47.5,40.0,29.88,WNW,286,10.0,15.0,75,0.00,,,0.01,225.00,VWS V14.01,2013-04-07 16:01:00,